Wetterdaten: Montag, 29.02.2016
Datum Zeit Auen-Temp. Temp gefhlt Luftfeuchte Luftdruck Regen Wind Richtung Richtung Sonnenschein Taupunkt Windben
29.02.2016 00:00 -0,1 C -0,4 C 91 % 1008,4 hPa 0,0 mm 4,2 km/h (1 Bft) NO 45 0 min -1,4 C 7,7 km/h (2 Bft)
29.02.2016 00:01 -0,1 C -0,4 C 91 % 1008,4 hPa 0,0 mm 4,2 km/h (1 Bft) NO 45 0 min -1,4 C 7,7 km/h (2 Bft)
29.02.2016 00:02 -0,1 C -0,4 C 91 % 1008,4 hPa 0,0 mm 4,2 km/h (1 Bft) NO 45 0 min -1,4 C 9,2 km/h (2 Bft)
29.02.2016 00:03 -0,1 C -0,4 C 91 % 1008,4 hPa 0,0 mm 4,2 km/h (1 Bft) NO 45 0 min -1,4 C 9,2 km/h (2 Bft)
29.02.2016 00:04 -0,1 C -0,4 C 91 % 1008,4 hPa 0,0 mm 4,2 km/h (1 Bft) O-NO 67 0 min -1,4 C 6,6 km/h (2 Bft)
29.02.2016 00:05 -0,1 C -0,4 C 91 % 1008,4 hPa 0,0 mm 4,2 km/h (1 Bft) O-NO 67 0 min -1,4 C 6,6 km/h (2 Bft)
29.02.2016 00:06 -0,1 C -0,4 C 91 % 1008,4 hPa 0,0 mm 4,2 km/h (1 Bft) O-SO 112 0 min -1,4 C 5,7 km/h (1 Bft)
29.02.2016 00:07 -0,1 C -0,4 C 91 % 1008,4 hPa 0,0 mm 4,2 km/h (1 Bft) O-SO 112 0 min -1,4 C 5,7 km/h (1 Bft)
29.02.2016 00:08 -0,2 C -0,4 C 91 % 1008,6 hPa 0,0 mm 3,9 km/h (1 Bft) O-NO 67 0 min -1,5 C 3,3 km/h (1 Bft)
29.02.2016 00:09 -0,2 C -0,4 C 91 % 1008,6 hPa 0,0 mm 3,9 km/h (1 Bft) O-NO 67 0 min -1,5 C 3,3 km/h (1 Bft)
29.02.2016 00:10 -0,2 C -0,4 C 91 % 1008,6 hPa 0,0 mm 3,6 km/h (1 Bft) NO 45 0 min -1,5 C 0,0 km/h (0 Bft)
29.02.2016 00:11 -0,2 C -0,4 C 91 % 1008,6 hPa 0,0 mm 3,6 km/h (1 Bft) NO 45 0 min -1,5 C 0,0 km/h (0 Bft)
29.02.2016 00:12 -0,2 C -0,4 C 91 % 1008,6 hPa 0,0 mm 3,3 km/h (1 Bft) O-NO 67 0 min -1,5 C 5,1 km/h (1 Bft)
29.02.2016 00:13 -0,2 C -0,4 C 91 % 1008,6 hPa 0,0 mm 3,3 km/h (1 Bft) O-NO 67 0 min -1,5 C 5,1 km/h (1 Bft)
29.02.2016 00:14 -0,2 C -0,4 C 91 % 1008,6 hPa 0,0 mm 3,3 km/h (1 Bft) O-NO 67 0 min -1,5 C 10,7 km/h (2 Bft)
29.02.2016 00:15 -0,2 C -0,4 C 91 % 1008,6 hPa 0,0 mm 3,3 km/h (1 Bft) O-NO 67 0 min -1,5 C 10,7 km/h (2 Bft)
29.02.2016 00:16 -0,2 C -0,4 C 91 % 1008,6 hPa 0,0 mm 4,5 km/h (1 Bft) NO 45 0 min -1,5 C 11,6 km/h (2 Bft)
29.02.2016 00:17 -0,2 C -0,4 C 91 % 1008,6 hPa 0,0 mm 4,5 km/h (1 Bft) NO 45 0 min -1,5 C 11,6 km/h (2 Bft)
29.02.2016 00:18 -0,2 C -0,5 C 91 % 1008,6 hPa 0,0 mm 5,1 km/h (1 Bft) NO 45 0 min -1,5 C 6,9 km/h (2 Bft)
29.02.2016 00:19 -0,2 C -0,5 C 91 % 1008,6 hPa 0,0 mm 5,1 km/h (1 Bft) NO 45 0 min -1,5 C 6,9 km/h (2 Bft)
29.02.2016 00:20 -0,2 C -0,7 C 91 % 1008,6 hPa 0,0 mm 6,0 km/h (2 Bft) O-NO 67 0 min -1,5 C 5,7 km/h (1 Bft)
29.02.2016 00:21 -0,2 C -0,7 C 91 % 1008,6 hPa 0,0 mm 6,0 km/h (2 Bft) O-NO 67 0 min -1,5 C 5,7 km/h (1 Bft)
29.02.2016 00:22 -0,3 C -0,8 C 91 % 1008,6 hPa 0,0 mm 6,6 km/h (2 Bft) NO 45 0 min -1,6 C 5,4 km/h (1 Bft)
29.02.2016 00:23 -0,3 C -0,8 C 91 % 1008,6 hPa 0,0 mm 6,6 km/h (2 Bft) NO 45 0 min -1,6 C 5,4 km/h (1 Bft)
29.02.2016 00:24 -0,2 C -0,7 C 91 % 1008,6 hPa 0,0 mm 6,6 km/h (2 Bft) NO 45 0 min -1,5 C 9,5 km/h (2 Bft)
29.02.2016 00:25 -0,2 C -0,7 C 91 % 1008,6 hPa 0,0 mm 6,6 km/h (2 Bft) NO 45 0 min -1,5 C 11,9 km/h (2 Bft)
29.02.2016 00:26 -0,2 C -0,7 C 91 % 1008,6 hPa 0,0 mm 6,3 km/h (2 Bft) N-NO 22 0 min -1,5 C 6,0 km/h (2 Bft)
29.02.2016 00:27 -0,2 C -0,7 C 91 % 1008,6 hPa 0,0 mm 6,3 km/h (2 Bft) N-NO 22 0 min -1,5 C 6,0 km/h (2 Bft)
29.02.2016 00:28 -0,2 C -0,6 C 91 % 1008,3 hPa 0,0 mm 5,4 km/h (1 Bft) O-SO 112 0 min -1,5 C 3,6 km/h (1 Bft)
29.02.2016 00:29 -0,2 C -0,6 C 91 % 1008,3 hPa 0,0 mm 5,4 km/h (1 Bft) O-SO 112 0 min -1,5 C 3,6 km/h (1 Bft)
29.02.2016 00:30 -0,3 C -0,6 C 91 % 1008,3 hPa 0,0 mm 4,8 km/h (1 Bft) O 90 0 min -1,6 C 3,6 km/h (1 Bft)
29.02.2016 00:31 -0,3 C -0,6 C 91 % 1008,3 hPa 0,0 mm 4,8 km/h (1 Bft) O 90 0 min -1,6 C 3,6 km/h (1 Bft)
29.02.2016 00:32 -0,3 C -0,5 C 91 % 1008,3 hPa 0,0 mm 3,6 km/h (1 Bft) O-NO 67 0 min -1,6 C 0,0 km/h (0 Bft)
29.02.2016 00:33 -0,3 C -0,5 C 91 % 1008,3 hPa 0,0 mm 3,6 km/h (1 Bft) O-NO 67 0 min -1,6 C 0,0 km/h (0 Bft)
29.02.2016 00:34 -0,3 C -0,5 C 91 % 1008,3 hPa 0,0 mm 3,0 km/h (1 Bft) O-SO 112 0 min -1,6 C 0,0 km/h (0 Bft)
29.02.2016 00:35 -0,3 C -0,5 C 91 % 1008,3 hPa 0,0 mm 3,0 km/h (1 Bft) O-SO 112 0 min -1,6 C 0,0 km/h (0 Bft)
29.02.2016 00:36 -0,3 C -0,5 C 91 % 1008,3 hPa 0,0 mm 2,4 km/h (1 Bft) O-SO 112 0 min -1,6 C 3,0 km/h (1 Bft)
29.02.2016 00:37 -0,3 C -0,5 C 91 % 1008,3 hPa 0,0 mm 2,4 km/h (1 Bft) O-SO 112 0 min -1,6 C 3,0 km/h (1 Bft)
29.02.2016 00:38 -0,3 C -0,5 C 91 % 1008,3 hPa 0,0 mm 2,1 km/h (1 Bft) S-SO 157 0 min -1,6 C 0,0 km/h (0 Bft)
29.02.2016 00:39 -0,3 C -0,5 C 91 % 1008,3 hPa 0,0 mm 2,1 km/h (1 Bft) S-SO 157 0 min -1,6 C 0,0 km/h (0 Bft)
29.02.2016 00:40 -0,3 C -0,5 C 91 % 1008,3 hPa 0,0 mm 1,5 km/h (1 Bft) O-SO 112 0 min -1,6 C 0,0 km/h (0 Bft)
29.02.2016 00:41 -0,3 C -0,5 C 91 % 1008,3 hPa 0,0 mm 1,5 km/h (1 Bft) O-SO 112 0 min -1,6 C 0,0 km/h (0 Bft)
29.02.2016 00:42 -0,3 C -0,5 C 91 % 1008,3 hPa 0,0 mm 1,5 km/h (1 Bft) O-SO 112 0 min -1,6 C 0,0 km/h (0 Bft)
29.02.2016 00:43 -0,3 C -0,5 C 91 % 1008,3 hPa 0,0 mm 1,5 km/h (1 Bft) O-SO 112 0 min -1,6 C 0,0 km/h (0 Bft)
29.02.2016 00:44 -0,3 C -0,5 C 91 % 1008,3 hPa 0,0 mm 1,5 km/h (1 Bft) NO 45 0 min -1,6 C 4,5 km/h (1 Bft)
29.02.2016 00:45 -0,3 C -0,5 C 91 % 1008,3 hPa 0,0 mm 1,5 km/h (1 Bft) NO 45 0 min -1,6 C 4,5 km/h (1 Bft)
29.02.2016 00:46 -0,3 C -0,5 C 91 % 1008,3 hPa 0,0 mm 2,1 km/h (1 Bft) O-NO 67 0 min -1,6 C 5,1 km/h (1 Bft)
29.02.2016 00:47 -0,3 C -0,5 C 91 % 1008,3 hPa 0,0 mm 2,1 km/h (1 Bft) O-NO 67 0 min -1,6 C 5,1 km/h (1 Bft)
29.02.2016 00:48 -0,3 C -0,5 C 91 % 1008,3 hPa 0,0 mm 1,8 km/h (1 Bft) O-NO 67 0 min -1,6 C 0,0 km/h (0 Bft)
29.02.2016 00:49 -0,3 C -0,5 C 91 % 1008,3 hPa 0,0 mm 1,8 km/h (1 Bft) O-NO 67 0 min -1,6 C 0,0 km/h (0 Bft)
29.02.2016 00:50 -0,3 C -0,5 C 92 % 1008,3 hPa 0,0 mm 2,1 km/h (1 Bft) NO 45 0 min -1,4 C 10,1 km/h (2 Bft)
29.02.2016 00:51 -0,3 C -0,5 C 92 % 1008,3 hPa 0,0 mm 2,1 km/h (1 Bft) NO 45 0 min -1,4 C 10,1 km/h (2 Bft)
29.02.2016 00:52 -0,3 C -0,5 C 92 % 1008,3 hPa 0,0 mm 3,3 km/h (1 Bft) O-NO 67 0 min -1,4 C 4,2 km/h (1 Bft)
29.02.2016 00:53 -0,3 C -0,5 C 92 % 1008,3 hPa 0,0 mm 3,3 km/h (1 Bft) O-NO 67 0 min -1,4 C 4,2 km/h (1 Bft)
29.02.2016 00:54 -0,3 C -0,5 C 92 % 1008,3 hPa 0,0 mm 4,2 km/h (1 Bft) O 90 0 min -1,4 C 7,5 km/h (2 Bft)
29.02.2016 00:55 -0,3 C -0,5 C 92 % 1008,3 hPa 0,0 mm 4,2 km/h (1 Bft) O 90 0 min -1,4 C 7,5 km/h (2 Bft)
29.02.2016 00:56 -0,3 C -0,5 C 92 % 1008,3 hPa 0,0 mm 4,2 km/h (1 Bft) N-NO 22 0 min -1,4 C 0,0 km/h (0 Bft)
29.02.2016 00:57 -0,3 C -0,5 C 92 % 1008,3 hPa 0,0 mm 4,2 km/h (1 Bft) N-NO 22 0 min -1,4 C 0,0 km/h (0 Bft)
29.02.2016 00:58 -0,3 C -0,5 C 92 % 1008,3 hPa 0,0 mm 4,2 km/h (1 Bft) O-NO 67 0 min -1,4 C 5,7 km/h (1 Bft)
29.02.2016 00:59 -0,3 C -0,5 C 92 % 1008,3 hPa 0,0 mm 4,2 km/h (1 Bft) O-NO 67 0 min -1,4 C 5,7 km/h (1 Bft)
29.02.2016 01:00 -0,3 C -0,6 C 92 % 1008,3 hPa 0,0 mm 4,8 km/h (1 Bft) O-NO 67 0 min -1,4 C 8,3 km/h (2 Bft)
29.02.2016 01:01 -0,3 C -0,6 C 92 % 1008,3 hPa 0,0 mm 4,8 km/h (1 Bft) O-NO 67 0 min -1,4 C 8,3 km/h (2 Bft)
29.02.2016 01:02 -0,3 C -0,6 C 92 % 1008,3 hPa 0,0 mm 4,5 km/h (1 Bft) NO 45 0 min -1,4 C 6,3 km/h (2 Bft)
29.02.2016 01:03 -0,3 C -0,6 C 92 % 1008,3 hPa 0,0 mm 4,5 km/h (1 Bft) NO 45 0 min -1,4 C 6,3 km/h (2 Bft)
29.02.2016 01:04 -0,3 C -0,6 C 92 % 1008,3 hPa 0,0 mm 5,1 km/h (1 Bft) O-NO 67 0 min -1,4 C 8,6 km/h (2 Bft)
29.02.2016 01:05 -0,3 C -0,6 C 92 % 1008,3 hPa 0,0 mm 5,1 km/h (1 Bft) O-NO 67 0 min -1,4 C 8,6 km/h (2 Bft)
29.02.2016 01:06 -0,3 C -0,7 C 92 % 1008,3 hPa 0,0 mm 5,7 km/h (1 Bft) NO 45 0 min -1,4 C 9,8 km/h (2 Bft)
29.02.2016 01:07 -0,3 C -0,7 C 92 % 1008,3 hPa 0,0 mm 5,7 km/h (1 Bft) NO 45 0 min -1,4 C 9,8 km/h (2 Bft)
29.02.2016 01:08 -0,3 C -0,8 C 92 % 1008,3 hPa 0,0 mm 6,6 km/h (2 Bft) NO 45 0 min -1,4 C 10,4 km/h (2 Bft)
29.02.2016 01:09 -0,3 C -0,8 C 92 % 1008,3 hPa 0,0 mm 6,6 km/h (2 Bft) NO 45 0 min -1,4 C 10,4 km/h (2 Bft)
29.02.2016 01:10 -0,3 C -0,8 C 92 % 1008,3 hPa 0,0 mm 6,9 km/h (2 Bft) O-SO 112 0 min -1,4 C 6,6 km/h (2 Bft)
29.02.2016 01:11 -0,3 C -0,8 C 92 % 1008,3 hPa 0,0 mm 6,9 km/h (2 Bft) O-SO 112 0 min -1,4 C 6,6 km/h (2 Bft)
29.02.2016 01:12 -0,4 C -0,9 C 92 % 1008,3 hPa 0,0 mm 6,6 km/h (2 Bft) O-NO 67 0 min -1,5 C 6,3 km/h (2 Bft)
29.02.2016 01:13 -0,4 C -0,9 C 92 % 1008,3 hPa 0,0 mm 6,6 km/h (2 Bft) O-NO 67 0 min -1,5 C 6,3 km/h (2 Bft)
29.02.2016 01:14 -0,4 C -0,8 C 92 % 1008,3 hPa 0,0 mm 6,0 km/h (2 Bft) O-NO 67 0 min -1,5 C 5,4 km/h (1 Bft)
29.02.2016 01:15 -0,4 C -0,8 C 92 % 1008,3 hPa 0,0 mm 6,0 km/h (2 Bft) O-NO 67 0 min -1,5 C 5,4 km/h (1 Bft)
29.02.2016 01:16 -0,4 C -0,8 C 92 % 1008,3 hPa 0,0 mm 5,7 km/h (1 Bft) NW 315 0 min -1,5 C 9,5 km/h (2 Bft)
29.02.2016 01:17 -0,4 C -0,8 C 92 % 1008,3 hPa 0,0 mm 5,7 km/h (1 Bft) NW 315 0 min -1,5 C 9,5 km/h (2 Bft)
29.02.2016 01:18 -0,4 C -0,8 C 92 % 1008,3 hPa 0,0 mm 5,7 km/h (1 Bft) O-NO 67 0 min -1,5 C 9,8 km/h (2 Bft)
29.02.2016 01:19 -0,4 C -0,8 C 92 % 1008,3 hPa 0,0 mm 5,7 km/h (1 Bft) O-NO 67 0 min -1,5 C 9,8 km/h (2 Bft)
29.02.2016 01:20 -0,4 C -0,7 C 92 % 1008,3 hPa 0,0 mm 5,1 km/h (1 Bft) NO 45 0 min -1,5 C 0,0 km/h (0 Bft)
29.02.2016 01:21 -0,4 C -0,7 C 92 % 1008,3 hPa 0,0 mm 5,1 km/h (1 Bft) NO 45 0 min -1,5 C 0,0 km/h (0 Bft)
29.02.2016 01:22 -0,4 C -0,7 C 92 % 1008,3 hPa 0,0 mm 5,4 km/h (1 Bft) O-SO 112 0 min -1,5 C 10,1 km/h (2 Bft)
29.02.2016 01:23 -0,4 C -0,7 C 92 % 1008,3 hPa 0,0 mm 5,4 km/h (1 Bft) O-SO 112 0 min -1,5 C 10,1 km/h (2 Bft)
29.02.2016 01:24 -0,5 C -0,8 C 87 % 1008,3 hPa 0,0 mm 5,7 km/h (1 Bft) N-NO 22 0 min -2,4 C 7,2 km/h (2 Bft)
29.02.2016 01:25 -0,5 C -0,8 C 87 % 1008,3 hPa 0,0 mm 5,7 km/h (1 Bft) N-NO 22 0 min -2,4 C 7,2 km/h (2 Bft)
29.02.2016 01:26 -0,5 C -0,8 C 87 % 1008,3 hPa 0,0 mm 6,0 km/h (2 Bft) O-NO 67 0 min -2,4 C 8,6 km/h (2 Bft)
29.02.2016 01:27 -0,5 C -0,8 C 87 % 1008,3 hPa 0,0 mm 6,0 km/h (2 Bft) O-NO 67 0 min -2,4 C 8,6 km/h (2 Bft)
29.02.2016 01:28 -0,5 C -0,8 C 87 % 1008,1 hPa 0,0 mm 6,0 km/h (2 Bft) NO 45 0 min -2,4 C 9,5 km/h (2 Bft)
29.02.2016 01:29 -0,5 C -0,8 C 87 % 1008,1 hPa 0,0 mm 6,0 km/h (2 Bft) NO 45 0 min -2,4 C 9,5 km/h (2 Bft)
29.02.2016 01:30 -0,5 C -0,8 C 87 % 1008,1 hPa 0,0 mm 5,7 km/h (1 Bft) O-NO 67 0 min -2,4 C 7,7 km/h (2 Bft)
29.02.2016 01:31 -0,5 C -0,8 C 87 % 1008,1 hPa 0,0 mm 5,7 km/h (1 Bft) O-NO 67 0 min -2,4 C 7,7 km/h (2 Bft)
29.02.2016 01:32 -0,5 C -0,9 C 87 % 1008,1 hPa 0,0 mm 6,6 km/h (2 Bft) O-NO 67 0 min -2,4 C 10,7 km/h (2 Bft)
29.02.2016 01:33 -0,5 C -0,9 C 87 % 1008,1 hPa 0,0 mm 6,6 km/h (2 Bft) O-NO 67 0 min -2,4 C 10,7 km/h (2 Bft)
29.02.2016 01:34 -0,5 C -0,8 C 87 % 1008,1 hPa 0,0 mm 6,0 km/h (2 Bft) O-NO 67 0 min -2,4 C 3,0 km/h (1 Bft)
29.02.2016 01:35 -0,5 C -0,8 C 87 % 1008,1 hPa 0,0 mm 6,0 km/h (2 Bft) O-NO 67 0 min -2,4 C 3,0 km/h (1 Bft)
29.02.2016 01:36 -0,5 C -0,8 C 87 % 1008,1 hPa 0,0 mm 5,7 km/h (1 Bft) SO 135 0 min -2,4 C 0,0 km/h (0 Bft)
29.02.2016 01:37 -0,5 C -0,8 C 87 % 1008,1 hPa 0,0 mm 5,7 km/h (1 Bft) SO 135 0 min -2,4 C 0,0 km/h (0 Bft)
29.02.2016 01:38 -0,5 C -0,7 C 87 % 1008,1 hPa 0,0 mm 5,1 km/h (1 Bft) O-NO 67 0 min -2,4 C 4,8 km/h (1 Bft)
29.02.2016 01:39 -0,5 C -0,7 C 87 % 1008,1 hPa 0,0 mm 5,1 km/h (1 Bft) O-NO 67 0 min -2,4 C 4,8 km/h (1 Bft)
29.02.2016 01:40 -0,5 C -0,6 C 87 % 1008,1 hPa 0,0 mm 3,9 km/h (1 Bft) O-NO 67 0 min -2,4 C 4,5 km/h (1 Bft)
29.02.2016 01:41 -0,5 C -0,6 C 87 % 1008,1 hPa 0,0 mm 3,9 km/h (1 Bft) O-NO 67 0 min -2,4 C 4,5 km/h (1 Bft)
29.02.2016 01:42 -0,5 C -0,6 C 87 % 1008,1 hPa 0,0 mm 3,9 km/h (1 Bft) NO 45 0 min -2,4 C 4,5 km/h (1 Bft)
29.02.2016 01:43 -0,5 C -0,6 C 87 % 1008,1 hPa 0,0 mm 3,9 km/h (1 Bft) NO 45 0 min -2,4 C 4,5 km/h (1 Bft)
29.02.2016 01:44 -0,5 C -0,6 C 87 % 1008,1 hPa 0,0 mm 3,0 km/h (1 Bft) W-NW 292 0 min -2,4 C 3,9 km/h (1 Bft)
29.02.2016 01:45 -0,5 C -0,6 C 87 % 1008,1 hPa 0,0 mm 3,0 km/h (1 Bft) W-NW 292 0 min -2,4 C 3,9 km/h (1 Bft)
29.02.2016 01:46 -0,5 C -0,6 C 87 % 1008,1 hPa 0,0 mm 3,0 km/h (1 Bft) O-SO 112 0 min -2,4 C 4,5 km/h (1 Bft)
29.02.2016 01:47 -0,5 C -0,6 C 87 % 1008,1 hPa 0,0 mm 3,0 km/h (1 Bft) O-SO 112 0 min -2,4 C 4,5 km/h (1 Bft)
29.02.2016 01:48 -0,5 C -0,6 C 87 % 1008,1 hPa 0,0 mm 2,4 km/h (1 Bft) O-SO 112 0 min -2,4 C 0,0 km/h (0 Bft)
29.02.2016 01:49 -0,5 C -0,6 C 87 % 1008,1 hPa 0,0 mm 2,4 km/h (1 Bft) O-SO 112 0 min -2,4 C 0,0 km/h (0 Bft)
29.02.2016 01:50 -0,3 C -0,5 C 92 % 1008,1 hPa 0,0 mm 2,7 km/h (1 Bft) NO 45 0 min -1,4 C 8,6 km/h (2 Bft)
29.02.2016 01:51 -0,3 C -0,5 C 92 % 1008,1 hPa 0,0 mm 2,7 km/h (1 Bft) NO 45 0 min -1,4 C 8,6 km/h (2 Bft)
29.02.2016 01:52 -0,3 C -0,5 C 93 % 1008,1 hPa 0,0 mm 2,7 km/h (1 Bft) N 360 0 min -1,3 C 3,3 km/h (1 Bft)
29.02.2016 01:53 -0,3 C -0,5 C 93 % 1008,1 hPa 0,0 mm 2,7 km/h (1 Bft) N 360 0 min -1,3 C 3,3 km/h (1 Bft)
29.02.2016 01:54 -0,4 C -0,6 C 93 % 1008,1 hPa 0,0 mm 3,0 km/h (1 Bft) N-NO 22 0 min -1,4 C 0,0 km/h (0 Bft)
29.02.2016 01:55 -0,4 C -0,6 C 93 % 1008,1 hPa 0,0 mm 3,0 km/h (1 Bft) N-NO 22 0 min -1,4 C 0,0 km/h (0 Bft)
29.02.2016 01:56 -0,4 C -0,6 C 93 % 1008,1 hPa 0,0 mm 3,6 km/h (1 Bft) O-NO 67 0 min -1,4 C 9,5 km/h (2 Bft)
29.02.2016 01:57 -0,4 C -0,6 C 93 % 1008,1 hPa 0,0 mm 3,6 km/h (1 Bft) O-NO 67 0 min -1,4 C 9,5 km/h (2 Bft)
29.02.2016 01:58 -0,4 C -0,6 C 93 % 1008,1 hPa 0,0 mm 4,2 km/h (1 Bft) O-NO 67 0 min -1,4 C 6,3 km/h (2 Bft)
29.02.2016 01:59 -0,4 C -0,6 C 93 % 1008,1 hPa 0,0 mm 4,2 km/h (1 Bft) O-NO 67 0 min -1,4 C 6,3 km/h (2 Bft)
29.02.2016 02:00 -0,4 C -0,7 C 93 % 1008,1 hPa 0,0 mm 5,4 km/h (1 Bft) O-NO 67 0 min -1,4 C 7,5 km/h (2 Bft)
29.02.2016 02:01 -0,4 C -0,7 C 93 % 1008,1 hPa 0,0 mm 5,4 km/h (1 Bft) O-NO 67 0 min -1,4 C 7,5 km/h (2 Bft)
29.02.2016 02:02 -0,4 C -0,8 C 93 % 1008,1 hPa 0,0 mm 5,7 km/h (1 Bft) O-NO 67 0 min -1,4 C 7,7 km/h (2 Bft)
29.02.2016 02:03 -0,4 C -0,8 C 93 % 1008,1 hPa 0,0 mm 5,7 km/h (1 Bft) O-NO 67 0 min -1,4 C 7,7 km/h (2 Bft)
29.02.2016 02:08 -0,4 C -0,8 C 93 % 1007,9 hPa 0,0 mm 5,7 km/h (1 Bft) O-NO 67 0 min -1,4 C 4,8 km/h (1 Bft)
29.02.2016 02:13 -0,4 C -0,8 C 93 % 1007,9 hPa 0,0 mm 5,7 km/h (1 Bft) O-NO 67 0 min -1,4 C 3,9 km/h (1 Bft)
29.02.2016 02:18 -0,4 C -0,8 C 93 % 1007,9 hPa 0,0 mm 5,7 km/h (1 Bft) O-NO 67 0 min -1,4 C 6,0 km/h (2 Bft)
29.02.2016 02:23 -0,4 C -0,6 C 93 % 1007,9 hPa 0,0 mm 4,5 km/h (1 Bft) NO 45 0 min -1,4 C 9,2 km/h (2 Bft)
29.02.2016 02:28 -0,4 C -0,7 C 93 % 1007,9 hPa 0,0 mm 5,4 km/h (1 Bft) O-NO 67 0 min -1,4 C 10,7 km/h (2 Bft)
29.02.2016 02:33 -0,4 C -0,7 C 93 % 1007,9 hPa 0,0 mm 5,1 km/h (1 Bft) NO 45 0 min -1,4 C 5,1 km/h (1 Bft)
29.02.2016 02:38 -0,4 C -0,6 C 93 % 1007,9 hPa 0,0 mm 2,7 km/h (1 Bft) N-NO 22 0 min -1,4 C 0,0 km/h (0 Bft)
29.02.2016 02:43 -0,4 C -0,6 C 93 % 1007,9 hPa 0,0 mm 1,8 km/h (1 Bft) O-NO 67 0 min -1,4 C 4,2 km/h (1 Bft)
29.02.2016 02:48 -0,4 C -0,6 C 93 % 1007,3 hPa 0,0 mm 2,1 km/h (1 Bft) NO 45 0 min -1,4 C 5,4 km/h (1 Bft)
29.02.2016 02:53 -0,3 C -0,5 C 93 % 1007,3 hPa 0,0 mm 2,7 km/h (1 Bft) O-NO 67 0 min -1,3 C 3,0 km/h (1 Bft)
29.02.2016 02:58 -0,3 C -0,5 C 93 % 1007,3 hPa 0,0 mm 3,0 km/h (1 Bft) N-NO 22 0 min -1,3 C 3,9 km/h (1 Bft)
29.02.2016 03:04 -0,3 C -0,5 C 93 % 1007,3 hPa 0,0 mm 2,4 km/h (1 Bft) N-NO 22 0 min -1,3 C 6,3 km/h (2 Bft)
29.02.2016 03:09 -0,3 C -0,5 C 93 % 1007,4 hPa 0,0 mm 3,0 km/h (1 Bft) O-NO 67 0 min -1,3 C 6,0 km/h (2 Bft)
29.02.2016 03:14 -0,3 C -0,5 C 93 % 1007,4 hPa 0,0 mm 3,9 km/h (1 Bft) O-NO 67 0 min -1,3 C 0,0 km/h (0 Bft)
29.02.2016 03:19 -0,3 C -0,6 C 93 % 1007,4 hPa 0,0 mm 4,8 km/h (1 Bft) NO 45 0 min -1,3 C 9,2 km/h (2 Bft)
29.02.2016 03:24 -0,3 C -0,7 C 93 % 1007,4 hPa 0,0 mm 5,7 km/h (1 Bft) O-NO 67 0 min -1,3 C 4,2 km/h (1 Bft)
29.02.2016 03:29 -0,3 C -0,7 C 93 % 1007,6 hPa 0,0 mm 5,7 km/h (1 Bft) O-NO 67 0 min -1,3 C 8,0 km/h (2 Bft)
29.02.2016 03:34 -0,3 C -0,7 C 93 % 1007,6 hPa 0,0 mm 5,7 km/h (1 Bft) O-NO 67 0 min -1,3 C 6,0 km/h (2 Bft)
29.02.2016 03:39 -0,3 C -0,7 C 93 % 1007,6 hPa 0,0 mm 6,3 km/h (2 Bft) N-NO 22 0 min -1,3 C 6,6 km/h (2 Bft)
29.02.2016 03:44 -0,3 C -0,7 C 93 % 1007,6 hPa 0,0 mm 5,7 km/h (1 Bft) NO 45 0 min -1,3 C 9,5 km/h (2 Bft)
29.02.2016 03:49 -0,3 C -0,7 C 93 % 1007,0 hPa 0,0 mm 5,7 km/h (1 Bft) NO 45 0 min -1,3 C 8,0 km/h (2 Bft)
29.02.2016 03:53 -0,3 C -0,6 C 93 % 1007,0 hPa 0,0 mm 5,1 km/h (1 Bft) O 90 0 min -1,3 C 3,9 km/h (1 Bft)
29.02.2016 03:58 -0,4 C -0,7 C 93 % 1007,0 hPa 0,0 mm 5,4 km/h (1 Bft) O-NO 67 0 min -1,4 C 10,7 km/h (2 Bft)
29.02.2016 04:03 -0,4 C -0,7 C 93 % 1007,0 hPa 0,0 mm 5,7 km/h (1 Bft) O 90 0 min -1,4 C 7,2 km/h (2 Bft)
29.02.2016 04:08 -0,4 C -0,6 C 93 % 1007,0 hPa 0,0 mm 4,8 km/h (1 Bft) O 90 0 min -1,4 C 3,9 km/h (1 Bft)
29.02.2016 04:13 -0,3 C -0,5 C 94 % 1007,0 hPa 0,0 mm 3,6 km/h (1 Bft) O-NO 67 0 min -1,1 C 7,5 km/h (2 Bft)
29.02.2016 04:18 -0,3 C -0,6 C 94 % 1007,0 hPa 0,0 mm 5,1 km/h (1 Bft) O-NO 67 0 min -1,1 C 7,5 km/h (2 Bft)
29.02.2016 04:23 -0,3 C -0,6 C 94 % 1007,0 hPa 0,0 mm 5,4 km/h (1 Bft) O-NO 67 0 min -1,1 C 3,6 km/h (1 Bft)
29.02.2016 04:28 -0,3 C -0,5 C 94 % 1006,9 hPa 0,0 mm 2,7 km/h (1 Bft) O-NO 67 0 min -1,1 C 3,6 km/h (1 Bft)
29.02.2016 04:33 -0,4 C -0,6 C 94 % 1006,9 hPa 0,0 mm 0,9 km/h (0 Bft) S 180 0 min -1,2 C 0,0 km/h (0 Bft)
29.02.2016 04:38 -0,3 C -0,5 C 94 % 1006,9 hPa 0,0 mm 0,9 km/h (0 Bft) O-NO 67 0 min -1,1 C 0,0 km/h (0 Bft)
29.02.2016 04:43 -0,4 C -0,6 C 94 % 1006,9 hPa 0,0 mm 0,3 km/h (0 Bft) O-NO 67 0 min -1,2 C 0,0 km/h (0 Bft)
29.02.2016 04:48 -0,4 C -0,6 C 94 % 1006,9 hPa 0,0 mm 0,9 km/h (0 Bft) NO 45 0 min -1,2 C 5,4 km/h (1 Bft)
29.02.2016 04:53 -0,3 C -0,5 C 94 % 1006,9 hPa 0,0 mm 1,2 km/h (1 Bft) NO 45 0 min -1,1 C 0,0 km/h (0 Bft)
29.02.2016 04:58 -0,3 C -0,5 C 94 % 1006,9 hPa 0,0 mm 1,2 km/h (1 Bft) O-NO 67 0 min -1,1 C 0,0 km/h (0 Bft)
29.02.2016 05:03 -0,4 C -0,6 C 94 % 1006,9 hPa 0,0 mm 0,3 km/h (0 Bft) O-SO 112 0 min -1,2 C 0,0 km/h (0 Bft)
29.02.2016 05:08 -0,4 C -0,6 C 94 % 1006,9 hPa 0,0 mm 0,0 km/h (0 Bft) N-NO 22 0 min -1,2 C 0,0 km/h (0 Bft)
29.02.2016 05:13 -0,3 C -0,5 C 94 % 1006,9 hPa 0,0 mm 1,2 km/h (1 Bft) O-NO 67 0 min -1,1 C 5,1 km/h (1 Bft)
29.02.2016 05:18 -0,3 C -0,5 C 94 % 1006,9 hPa 0,0 mm 2,4 km/h (1 Bft) O-NO 67 0 min -1,1 C 3,0 km/h (1 Bft)
29.02.2016 05:23 -0,3 C -0,5 C 94 % 1006,9 hPa 0,0 mm 2,4 km/h (1 Bft) N-NO 22 0 min -1,1 C 0,0 km/h (0 Bft)
29.02.2016 05:28 -0,3 C -0,5 C 94 % 1006,8 hPa 0,0 mm 1,8 km/h (1 Bft) NO 45 0 min -1,1 C 4,5 km/h (1 Bft)
29.02.2016 05:33 -0,3 C -0,5 C 94 % 1006,8 hPa 0,0 mm 2,4 km/h (1 Bft) N-NW 337 0 min -1,1 C 3,0 km/h (1 Bft)
29.02.2016 05:38 -0,3 C -0,5 C 94 % 1006,8 hPa 0,0 mm 3,0 km/h (1 Bft) NO 45 0 min -1,1 C 7,7 km/h (2 Bft)
29.02.2016 05:43 -0,3 C -0,5 C 94 % 1006,8 hPa 0,0 mm 4,2 km/h (1 Bft) N-NO 22 0 min -1,1 C 0,0 km/h (0 Bft)
29.02.2016 05:48 -0,3 C -0,6 C 94 % 1006,9 hPa 0,0 mm 5,1 km/h (1 Bft) O-NO 67 0 min -1,1 C 3,6 km/h (1 Bft)
29.02.2016 05:53 -0,3 C -0,4 C 87 % 1006,9 hPa 0,0 mm 2,7 km/h (1 Bft) N-NO 22 0 min -2,2 C 3,0 km/h (1 Bft)
29.02.2016 05:58 -0,3 C -0,4 C 87 % 1006,9 hPa 0,0 mm 1,2 km/h (1 Bft) O-NO 67 0 min -2,2 C 0,0 km/h (0 Bft)
29.02.2016 06:03 -0,3 C -0,5 C 94 % 1006,9 hPa 0,0 mm 2,4 km/h (1 Bft) N-NO 22 0 min -1,1 C 4,5 km/h (1 Bft)
29.02.2016 06:08 -0,3 C -0,4 C 87 % 1006,6 hPa 0,0 mm 2,4 km/h (1 Bft) SO 135 0 min -2,2 C 0,0 km/h (0 Bft)
29.02.2016 06:13 -0,3 C -0,5 C 94 % 1006,6 hPa 0,0 mm 2,7 km/h (1 Bft) N-NO 22 0 min -1,1 C 5,7 km/h (1 Bft)
29.02.2016 06:18 -0,3 C -0,4 C 87 % 1006,6 hPa 0,0 mm 2,7 km/h (1 Bft) N-NW 337 0 min -2,2 C 0,0 km/h (0 Bft)
29.02.2016 06:23 -0,3 C -0,4 C 87 % 1006,6 hPa 0,0 mm 0,9 km/h (0 Bft) O-NO 67 0 min -2,2 C 0,0 km/h (0 Bft)
29.02.2016 06:28 -0,3 C -0,4 C 87 % 1006,8 hPa 0,0 mm 0,3 km/h (0 Bft) O-NO 67 0 min -2,2 C 3,6 km/h (1 Bft)
29.02.2016 06:33 -0,3 C -0,4 C 87 % 1006,8 hPa 0,0 mm 1,2 km/h (1 Bft) N-NW 337 0 min -2,2 C 5,4 km/h (1 Bft)
29.02.2016 06:38 -0,3 C -0,4 C 87 % 1006,8 hPa 0,0 mm 1,5 km/h (1 Bft) NO 45 0 min -2,2 C 3,9 km/h (1 Bft)
29.02.2016 06:43 -0,3 C -0,4 C 87 % 1006,8 hPa 0,0 mm 1,8 km/h (1 Bft) N-NO 22 0 min -2,2 C 5,4 km/h (1 Bft)
29.02.2016 06:48 -0,3 C -0,4 C 87 % 1006,8 hPa 0,0 mm 1,2 km/h (1 Bft) N-NW 337 0 min -2,2 C 0,0 km/h (0 Bft)
29.02.2016 06:53 -0,3 C -0,4 C 87 % 1006,8 hPa 0,0 mm 0,6 km/h (0 Bft) O-SO 112 0 min -2,2 C 0,0 km/h (0 Bft)
29.02.2016 06:58 -0,3 C -0,4 C 87 % 1006,8 hPa 0,0 mm 0,6 km/h (0 Bft) NO 45 0 min -2,2 C 0,0 km/h (0 Bft)
29.02.2016 07:03 -0,3 C -0,4 C 87 % 1006,8 hPa 0,0 mm 0,6 km/h (0 Bft) W-NW 292 0 min -2,2 C 0,0 km/h (0 Bft)
29.02.2016 07:08 -0,3 C -0,4 C 87 % 1007,0 hPa 0,0 mm 0,0 km/h (0 Bft) O-NO 67 0 min -2,2 C 0,0 km/h (0 Bft)
29.02.2016 07:13 -0,3 C -0,3 C 87 % 1007,0 hPa 0,0 mm 0,0 km/h (0 Bft) SO 135 0 min -2,2 C 0,0 km/h (0 Bft)
29.02.2016 07:18 -0,3 C -0,3 C 87 % 1007,0 hPa 0,0 mm 0,0 km/h (0 Bft) W-NW 292 0 min -2,2 C 0,0 km/h (0 Bft)
29.02.2016 07:23 -0,3 C -0,3 C 87 % 1007,0 hPa 0,0 mm 0,0 km/h (0 Bft) W-NW 292 0 min -2,2 C 0,0 km/h (0 Bft)
29.02.2016 07:28 -0,3 C -0,2 C 87 % 1006,9 hPa 0,0 mm 0,0 km/h (0 Bft) W 270 0 min -2,2 C 0,0 km/h (0 Bft)
29.02.2016 07:33 -0,3 C -0,2 C 87 % 1006,9 hPa 0,0 mm 0,0 km/h (0 Bft) W 270 0 min -2,2 C 0,0 km/h (0 Bft)
29.02.2016 07:38 -0,3 C -0,2 C 87 % 1006,9 hPa 0,0 mm 0,0 km/h (0 Bft) W-NW 292 0 min -2,2 C 0,0 km/h (0 Bft)
29.02.2016 07:43 -0,3 C -0,1 C 87 % 1006,9 hPa 0,0 mm 0,0 km/h (0 Bft) W-NW 292 0 min -2,2 C 0,0 km/h (0 Bft)
29.02.2016 07:48 -0,3 C -0,1 C 87 % 1007,1 hPa 0,0 mm 0,0 km/h (0 Bft) W 270 0 min -2,2 C 0,0 km/h (0 Bft)
29.02.2016 07:53 -0,1 C -0,1 C 89 % 1007,1 hPa 0,0 mm 0,0 km/h (0 Bft) W 270 0 min -1,7 C 0,0 km/h (0 Bft)
29.02.2016 07:58 -0,1 C -0,1 C 89 % 1007,1 hPa 0,0 mm 0,0 km/h (0 Bft) W 270 0 min -1,7 C 0,0 km/h (0 Bft)
29.02.2016 08:03 -0,1 C -0,1 C 89 % 1007,1 hPa 0,0 mm 0,0 km/h (0 Bft) W 270 0 min -1,7 C 0,0 km/h (0 Bft)
29.02.2016 08:08 -0,1 C -0,1 C 89 % 1007,2 hPa 0,0 mm 0,0 km/h (0 Bft) W 270 0 min -1,7 C 0,0 km/h (0 Bft)
29.02.2016 08:13 -0,1 C -0,1 C 89 % 1007,2 hPa 0,0 mm 0,0 km/h (0 Bft) W 270 0 min -1,7 C 0,0 km/h (0 Bft)
29.02.2016 08:18 -0,1 C 0,0 C 89 % 1007,2 hPa 0,0 mm 0,0 km/h (0 Bft) W 270 0 min -1,7 C 0,0 km/h (0 Bft)
29.02.2016 08:23 -0,1 C 0,0 C 89 % 1007,2 hPa 0,0 mm 0,0 km/h (0 Bft) W-NW 292 0 min -1,7 C 0,0 km/h (0 Bft)
29.02.2016 08:28 0,0 C 0,1 C 89 % 1007,2 hPa 0,0 mm 0,0 km/h (0 Bft) W-NW 292 0 min -1,6 C 0,0 km/h (0 Bft)
29.02.2016 08:33 0,0 C 0,1 C 89 % 1007,2 hPa 0,0 mm 0,0 km/h (0 Bft) W 270 0 min -1,6 C 0,0 km/h (0 Bft)
29.02.2016 08:38 0,0 C 0,1 C 89 % 1007,2 hPa 0,0 mm 0,0 km/h (0 Bft) W-NW 292 0 min -1,6 C 0,0 km/h (0 Bft)
29.02.2016 08:43 0,0 C 0,1 C 89 % 1007,2 hPa 0,0 mm 0,0 km/h (0 Bft) W 270 0 min -1,6 C 0,0 km/h (0 Bft)
29.02.2016 08:48 0,0 C 0,2 C 89 % 1007,4 hPa 0,0 mm 0,0 km/h (0 Bft) W-SW 247 0 min -1,6 C 0,0 km/h (0 Bft)
29.02.2016 08:53 0,1 C 0,2 C 89 % 1007,4 hPa 0,0 mm 0,0 km/h (0 Bft) W-NW 292 0 min -1,5 C 0,0 km/h (0 Bft)
29.02.2016 08:58 0,1 C 0,3 C 89 % 1007,4 hPa 0,0 mm 0,0 km/h (0 Bft) NW 315 0 min -1,5 C 0,0 km/h (0 Bft)
29.02.2016 09:03 0,1 C 0,3 C 89 % 1007,4 hPa 0,0 mm 0,0 km/h (0 Bft) W-NW 292 0 min -1,5 C 0,0 km/h (0 Bft)
29.02.2016 09:08 0,1 C 0,4 C 89 % 1007,5 hPa 0,0 mm 0,0 km/h (0 Bft) W 270 0 min -1,5 C 0,0 km/h (0 Bft)
29.02.2016 09:13 0,2 C 0,5 C 89 % 1007,5 hPa 0,0 mm 0,0 km/h (0 Bft) W 270 0 min -1,4 C 0,0 km/h (0 Bft)
29.02.2016 09:18 0,2 C 0,6 C 89 % 1007,5 hPa 0,0 mm 0,0 km/h (0 Bft) W-SW 247 0 min -1,4 C 0,0 km/h (0 Bft)
29.02.2016 09:23 0,4 C 0,7 C 89 % 1007,5 hPa 0,0 mm 0,0 km/h (0 Bft) W-NW 292 0 min -1,2 C 0,0 km/h (0 Bft)
29.02.2016 09:28 0,4 C 0,7 C 89 % 1007,4 hPa 0,0 mm 0,0 km/h (0 Bft) W-NW 292 0 min -1,2 C 0,0 km/h (0 Bft)
29.02.2016 09:33 0,4 C 0,8 C 89 % 1007,4 hPa 0,7 mm 0,0 km/h (0 Bft) W 270 0 min -1,2 C 0,0 km/h (0 Bft)
29.02.2016 09:38 0,4 C 0,9 C 89 % 1007,4 hPa 0,0 mm 0,0 km/h (0 Bft) NW 315 0 min -1,2 C 0,0 km/h (0 Bft)
29.02.2016 09:43 0,5 C 1,0 C 89 % 1007,4 hPa 0,0 mm 0,0 km/h (0 Bft) NW 315 0 min -1,1 C 0,0 km/h (0 Bft)
29.02.2016 09:48 0,6 C 1,1 C 89 % 1007,4 hPa 0,0 mm 0,0 km/h (0 Bft) NW 315 0 min -1,0 C 0,0 km/h (0 Bft)
29.02.2016 09:53 0,6 C 1,4 C 89 % 1007,4 hPa 0,0 mm 0,0 km/h (0 Bft) W 270 0 min -1,0 C 0,0 km/h (0 Bft)
29.02.2016 09:58 0,6 C 1,5 C 89 % 1007,4 hPa 0,0 mm 0,0 km/h (0 Bft) W 270 0 min -1,0 C 0,0 km/h (0 Bft)
29.02.2016 10:03 0,6 C 1,7 C 89 % 1007,4 hPa 0,0 mm 0,0 km/h (0 Bft) W 270 0 min -1,0 C 0,0 km/h (0 Bft)
29.02.2016 10:08 0,6 C 1,7 C 89 % 1007,6 hPa 0,0 mm 0,0 km/h (0 Bft) W-NW 292 0 min -1,0 C 0,0 km/h (0 Bft)
29.02.2016 10:13 0,7 C 1,8 C 89 % 1007,6 hPa 0,0 mm 0,3 km/h (0 Bft) W-NW 292 0 min -0,9 C 0,0 km/h (0 Bft)
29.02.2016 10:18 0,7 C 1,8 C 89 % 1007,6 hPa 0,0 mm 0,3 km/h (0 Bft) W 270 0 min -0,9 C 0,0 km/h (0 Bft)
29.02.2016 10:23 0,7 C 1,9 C 89 % 1007,6 hPa 0,0 mm 0,3 km/h (0 Bft) W-SW 247 0 min -0,9 C 4,5 km/h (1 Bft)
29.02.2016 10:28 0,7 C 1,9 C 89 % 1007,6 hPa 0,0 mm 0,3 km/h (0 Bft) W 270 0 min -0,9 C 0,0 km/h (0 Bft)
29.02.2016 10:33 0,7 C 2,0 C 89 % 1007,6 hPa 0,0 mm 0,3 km/h (0 Bft) W-NW 292 0 min -0,9 C 3,6 km/h (1 Bft)
29.02.2016 10:38 0,8 C 2,0 C 89 % 1007,6 hPa 0,0 mm 0,3 km/h (0 Bft) W 270 0 min -0,8 C 0,0 km/h (0 Bft)
29.02.2016 10:43 0,9 C 2,1 C 89 % 1007,6 hPa 0,0 mm 0,3 km/h (0 Bft) SW 225 0 min -0,7 C 0,0 km/h (0 Bft)
29.02.2016 10:48 0,9 C 2,2 C 89 % 1007,8 hPa 0,0 mm 0,0 km/h (0 Bft) W-NW 292 0 min -0,7 C 0,0 km/h (0 Bft)
29.02.2016 10:55 1,0 C 2,1 C 89 % 1007,8 hPa 0,0 mm 0,3 km/h (0 Bft) W 270 0 min -0,6 C 0,0 km/h (0 Bft)
29.02.2016 10:58 1,0 C 2,0 C 89 % 1007,8 hPa 0,0 mm 1,2 km/h (1 Bft) W-NW 292 0 min -0,6 C 4,8 km/h (1 Bft)
29.02.2016 10:59 1,0 C 2,0 C 89 % 1007,8 hPa 0,0 mm 1,2 km/h (1 Bft) W-NW 292 0 min -0,6 C 4,8 km/h (1 Bft)
29.02.2016 11:00 1,0 C 2,0 C 89 % 1007,8 hPa 0,0 mm 1,2 km/h (1 Bft) W-NW 292 0 min -0,6 C 0,0 km/h (0 Bft)
29.02.2016 11:01 1,0 C 2,0 C 89 % 1007,8 hPa 0,0 mm 1,2 km/h (1 Bft) W-NW 292 0 min -0,6 C 0,0 km/h (0 Bft)
29.02.2016 11:02 1,0 C 2,0 C 89 % 1007,8 hPa 0,0 mm 1,2 km/h (1 Bft) W 270 0 min -0,6 C 0,0 km/h (0 Bft)
29.02.2016 11:03 1,0 C 2,0 C 89 % 1007,8 hPa 0,0 mm 1,2 km/h (1 Bft) W 270 0 min -0,6 C 0,0 km/h (0 Bft)
29.02.2016 11:04 1,0 C 2,0 C 89 % 1007,8 hPa 0,0 mm 1,5 km/h (1 Bft) W 270 0 min -0,6 C 0,0 km/h (0 Bft)
29.02.2016 11:05 1,0 C 2,0 C 89 % 1007,8 hPa 0,0 mm 1,5 km/h (1 Bft) W 270 0 min -0,6 C 0,0 km/h (0 Bft)
29.02.2016 11:06 1,0 C 2,0 C 89 % 1007,8 hPa 0,0 mm 1,5 km/h (1 Bft) W 270 0 min -0,6 C 3,0 km/h (1 Bft)
29.02.2016 11:07 1,0 C 2,0 C 89 % 1007,8 hPa 0,0 mm 1,5 km/h (1 Bft) W 270 0 min -0,6 C 3,0 km/h (1 Bft)
29.02.2016 11:08 1,0 C 1,9 C 89 % 1007,8 hPa 0,0 mm 1,2 km/h (1 Bft) W 270 0 min -0,6 C 0,0 km/h (0 Bft)
29.02.2016 11:09 1,0 C 1,9 C 89 % 1007,8 hPa 0,0 mm 1,2 km/h (1 Bft) W 270 0 min -0,6 C 0,0 km/h (0 Bft)
29.02.2016 11:10 1,0 C 1,9 C 89 % 1007,8 hPa 0,0 mm 0,9 km/h (0 Bft) W 270 0 min -0,6 C 0,0 km/h (0 Bft)
29.02.2016 11:11 1,0 C 1,9 C 89 % 1007,8 hPa 0,0 mm 0,9 km/h (0 Bft) W 270 0 min -0,6 C 0,0 km/h (0 Bft)
29.02.2016 11:12 1,0 C 1,9 C 89 % 1007,8 hPa 0,0 mm 0,9 km/h (0 Bft) W-SW 247 0 min -0,6 C 4,2 km/h (1 Bft)
29.02.2016 11:13 1,0 C 1,9 C 89 % 1007,8 hPa 0,0 mm 0,9 km/h (0 Bft) W-SW 247 0 min -0,6 C 4,2 km/h (1 Bft)
29.02.2016 11:14 0,9 C 1,9 C 89 % 1007,8 hPa 0,0 mm 0,9 km/h (0 Bft) W 270 0 min -0,7 C 5,1 km/h (1 Bft)
29.02.2016 11:15 0,9 C 1,9 C 89 % 1007,8 hPa 0,0 mm 0,9 km/h (0 Bft) W 270 0 min -0,7 C 5,1 km/h (1 Bft)
29.02.2016 11:16 0,9 C 1,9 C 89 % 1007,8 hPa 0,0 mm 0,9 km/h (0 Bft) W-NW 292 0 min -0,7 C 0,0 km/h (0 Bft)
29.02.2016 11:17 0,9 C 1,9 C 89 % 1007,8 hPa 0,0 mm 0,9 km/h (0 Bft) W-NW 292 0 min -0,7 C 0,0 km/h (0 Bft)
29.02.2016 11:18 0,9 C 1,9 C 89 % 1007,8 hPa 0,0 mm 0,9 km/h (0 Bft) W-SW 247 0 min -0,7 C 0,0 km/h (0 Bft)
29.02.2016 11:19 0,9 C 1,9 C 89 % 1007,8 hPa 0,0 mm 0,9 km/h (0 Bft) W-SW 247 0 min -0,7 C 0,0 km/h (0 Bft)
29.02.2016 11:20 1,0 C 2,0 C 89 % 1007,8 hPa 0,0 mm 0,6 km/h (0 Bft) W-NW 292 0 min -0,6 C 0,0 km/h (0 Bft)
29.02.2016 11:21 1,0 C 2,0 C 89 % 1007,8 hPa 0,0 mm 0,6 km/h (0 Bft) W-NW 292 0 min -0,6 C 0,0 km/h (0 Bft)
29.02.2016 11:22 1,0 C 2,0 C 89 % 1007,8 hPa 0,0 mm 0,9 km/h (0 Bft) W-SW 247 0 min -0,6 C 3,3 km/h (1 Bft)
29.02.2016 11:23 1,0 C 2,0 C 89 % 1007,8 hPa 0,0 mm 0,9 km/h (0 Bft) W-SW 247 0 min -0,6 C 3,3 km/h (1 Bft)
29.02.2016 11:24 1,0 C 1,9 C 89 % 1007,8 hPa 0,0 mm 1,5 km/h (1 Bft) W-NW 292 0 min -0,6 C 6,6 km/h (2 Bft)
29.02.2016 11:25 1,0 C 1,9 C 89 % 1007,8 hPa 0,0 mm 1,5 km/h (1 Bft) W-NW 292 0 min -0,6 C 6,6 km/h (2 Bft)
29.02.2016 11:26 1,0 C 1,8 C 89 % 1007,8 hPa 0,0 mm 1,8 km/h (1 Bft) W-NW 292 0 min -0,6 C 0,0 km/h (0 Bft)
29.02.2016 11:27 1,0 C 1,8 C 89 % 1007,8 hPa 0,0 mm 1,8 km/h (1 Bft) W-NW 292 0 min -0,6 C 0,0 km/h (0 Bft)
29.02.2016 11:28 1,0 C 1,8 C 89 % 1008,0 hPa 0,0 mm 2,1 km/h (1 Bft) NW 315 0 min -0,6 C 0,0 km/h (0 Bft)
29.02.2016 11:29 1,0 C 1,8 C 89 % 1008,0 hPa 0,0 mm 2,1 km/h (1 Bft) NW 315 0 min -0,6 C 0,0 km/h (0 Bft)
29.02.2016 11:30 1,0 C 1,8 C 89 % 1008,0 hPa 0,0 mm 2,4 km/h (1 Bft) NW 315 0 min -0,6 C 3,0 km/h (1 Bft)
29.02.2016 11:31 1,0 C 1,8 C 89 % 1008,0 hPa 0,0 mm 2,4 km/h (1 Bft) NW 315 0 min -0,6 C 3,0 km/h (1 Bft)
29.02.2016 11:32 1,0 C 1,7 C 89 % 1008,0 hPa 0,0 mm 3,0 km/h (1 Bft) W 270 0 min -0,6 C 5,1 km/h (1 Bft)
29.02.2016 11:33 1,0 C 1,7 C 89 % 1008,0 hPa 0,0 mm 3,0 km/h (1 Bft) W 270 0 min -0,6 C 5,1 km/h (1 Bft)
29.02.2016 11:34 1,0 C 1,7 C 89 % 1008,0 hPa 0,0 mm 3,3 km/h (1 Bft) W 270 0 min -0,6 C 6,6 km/h (2 Bft)
29.02.2016 11:35 1,0 C 1,7 C 89 % 1008,0 hPa 0,0 mm 3,3 km/h (1 Bft) W 270 0 min -0,6 C 6,6 km/h (2 Bft)
29.02.2016 11:36 1,0 C 1,6 C 89 % 1008,0 hPa 0,0 mm 2,4 km/h (1 Bft) W 270 0 min -0,6 C 0,0 km/h (0 Bft)
29.02.2016 11:37 1,0 C 1,6 C 89 % 1008,0 hPa 0,0 mm 2,4 km/h (1 Bft) W 270 0 min -0,6 C 0,0 km/h (0 Bft)
29.02.2016 11:38 1,0 C 1,6 C 89 % 1008,0 hPa 0,0 mm 3,0 km/h (1 Bft) O-SO 112 0 min -0,6 C 6,3 km/h (2 Bft)
29.02.2016 11:39 1,0 C 1,6 C 89 % 1008,0 hPa 0,0 mm 3,0 km/h (1 Bft) O-SO 112 0 min -0,6 C 6,3 km/h (2 Bft)
29.02.2016 11:40 0,9 C 1,6 C 89 % 1008,0 hPa 0,0 mm 3,6 km/h (1 Bft) W-NW 292 0 min -0,7 C 8,3 km/h (2 Bft)
29.02.2016 11:41 0,9 C 1,6 C 89 % 1008,0 hPa 0,0 mm 3,6 km/h (1 Bft) W-NW 292 0 min -0,7 C 8,3 km/h (2 Bft)
29.02.2016 11:42 0,9 C 1,5 C 89 % 1008,0 hPa 0,0 mm 4,2 km/h (1 Bft) W 270 0 min -0,7 C 5,7 km/h (1 Bft)
29.02.2016 11:43 0,9 C 1,5 C 89 % 1008,0 hPa 0,0 mm 4,2 km/h (1 Bft) W 270 0 min -0,7 C 5,7 km/h (1 Bft)
29.02.2016 11:44 0,9 C 1,4 C 89 % 1008,0 hPa 0,0 mm 4,2 km/h (1 Bft) W-SW 247 0 min -0,7 C 4,2 km/h (1 Bft)
29.02.2016 11:45 0,9 C 1,4 C 89 % 1008,0 hPa 0,0 mm 4,2 km/h (1 Bft) W-SW 247 0 min -0,7 C 4,2 km/h (1 Bft)
29.02.2016 11:46 0,9 C 1,3 C 89 % 1008,0 hPa 0,0 mm 4,2 km/h (1 Bft) W 270 0 min -0,7 C 4,8 km/h (1 Bft)
29.02.2016 11:47 0,9 C 1,3 C 89 % 1008,0 hPa 0,0 mm 4,2 km/h (1 Bft) W 270 0 min -0,7 C 4,8 km/h (1 Bft)
29.02.2016 11:48 0,9 C 1,3 C 89 % 1007,9 hPa 0,0 mm 4,5 km/h (1 Bft) W 270 0 min -0,7 C 5,1 km/h (1 Bft)
29.02.2016 11:49 0,9 C 1,3 C 89 % 1007,9 hPa 0,0 mm 4,5 km/h (1 Bft) W 270 0 min -0,7 C 5,1 km/h (1 Bft)
29.02.2016 11:50 0,9 C 1,3 C 89 % 1007,9 hPa 0,0 mm 4,5 km/h (1 Bft) W-SW 247 0 min -0,7 C 4,2 km/h (1 Bft)
29.02.2016 11:51 0,9 C 1,3 C 89 % 1007,9 hPa 0,0 mm 4,5 km/h (1 Bft) W-SW 247 0 min -0,7 C 4,2 km/h (1 Bft)
29.02.2016 11:52 0,9 C 1,3 C 89 % 1007,9 hPa 0,0 mm 3,9 km/h (1 Bft) W-NW 292 0 min -0,7 C 10,1 km/h (2 Bft)
29.02.2016 11:53 0,9 C 1,3 C 89 % 1007,9 hPa 0,0 mm 3,9 km/h (1 Bft) W-NW 292 0 min -0,7 C 10,1 km/h (2 Bft)
29.02.2016 11:54 0,8 C 1,3 C 89 % 1007,9 hPa 0,0 mm 3,6 km/h (1 Bft) NO 45 0 min -0,8 C 4,5 km/h (1 Bft)
29.02.2016 11:55 0,8 C 1,3 C 89 % 1007,9 hPa 0,0 mm 3,6 km/h (1 Bft) NO 45 0 min -0,8 C 4,5 km/h (1 Bft)
29.02.2016 11:56 0,8 C 1,3 C 89 % 1007,9 hPa 0,0 mm 3,3 km/h (1 Bft) W-NW 292 0 min -0,8 C 4,5 km/h (1 Bft)
29.02.2016 11:58 0,8 C 1,3 C 89 % 1007,9 hPa 0,0 mm 3,3 km/h (1 Bft) W 270 0 min -0,8 C 0,0 km/h (0 Bft)
29.02.2016 11:59 0,8 C 1,3 C 89 % 1007,9 hPa 0,0 mm 3,3 km/h (1 Bft) W 270 0 min -0,8 C 0,0 km/h (0 Bft)
29.02.2016 12:00 0,8 C 1,3 C 89 % 1007,9 hPa 0,0 mm 2,4 km/h (1 Bft) W-NW 292 0 min -0,8 C 0,0 km/h (0 Bft)
29.02.2016 12:01 0,8 C 1,3 C 89 % 1007,9 hPa 0,0 mm 2,4 km/h (1 Bft) W-NW 292 0 min -0,8 C 0,0 km/h (0 Bft)
29.02.2016 12:02 0,8 C 1,3 C 89 % 1007,9 hPa 0,0 mm 2,1 km/h (1 Bft) W 270 0 min -0,8 C 0,0 km/h (0 Bft)
29.02.2016 12:03 0,8 C 1,3 C 89 % 1007,9 hPa 0,0 mm 2,1 km/h (1 Bft) W 270 0 min -0,8 C 0,0 km/h (0 Bft)
29.02.2016 12:04 0,8 C 1,4 C 89 % 1007,9 hPa 0,0 mm 0,9 km/h (0 Bft) W-SW 247 0 min -0,8 C 0,0 km/h (0 Bft)
29.02.2016 12:05 0,8 C 1,4 C 89 % 1007,9 hPa 0,0 mm 0,9 km/h (0 Bft) W-SW 247 0 min -0,8 C 0,0 km/h (0 Bft)
29.02.2016 12:06 0,8 C 1,4 C 89 % 1007,9 hPa 0,0 mm 0,9 km/h (0 Bft) W 270 0 min -0,8 C 4,5 km/h (1 Bft)
29.02.2016 12:07 0,8 C 1,4 C 89 % 1007,9 hPa 0,0 mm 0,9 km/h (0 Bft) W 270 0 min -0,8 C 4,5 km/h (1 Bft)
29.02.2016 12:08 0,8 C 1,5 C 89 % 1007,9 hPa 0,0 mm 0,6 km/h (0 Bft) W 270 0 min -0,8 C 0,0 km/h (0 Bft)
29.02.2016 12:09 0,8 C 1,5 C 89 % 1007,9 hPa 0,0 mm 0,6 km/h (0 Bft) W 270 0 min -0,8 C 0,0 km/h (0 Bft)
29.02.2016 12:10 0,8 C 1,5 C 89 % 1007,9 hPa 0,0 mm 0,9 km/h (0 Bft) W 270 0 min -0,8 C 0,0 km/h (0 Bft)
29.02.2016 12:11 0,8 C 1,5 C 89 % 1007,9 hPa 0,0 mm 0,9 km/h (0 Bft) W 270 0 min -0,8 C 0,0 km/h (0 Bft)
29.02.2016 12:12 0,8 C 1,5 C 89 % 1007,9 hPa 0,0 mm 0,9 km/h (0 Bft) W 270 0 min -0,8 C 0,0 km/h (0 Bft)
29.02.2016 12:13 0,8 C 1,5 C 89 % 1007,9 hPa 0,0 mm 0,9 km/h (0 Bft) W 270 0 min -0,8 C 0,0 km/h (0 Bft)
29.02.2016 12:14 0,8 C 1,5 C 89 % 1007,9 hPa 0,0 mm 0,9 km/h (0 Bft) W 270 0 min -0,8 C 0,0 km/h (0 Bft)
29.02.2016 12:15 0,8 C 1,5 C 89 % 1007,9 hPa 0,0 mm 0,9 km/h (0 Bft) W 270 0 min -0,8 C 0,0 km/h (0 Bft)
29.02.2016 12:16 0,8 C 1,6 C 89 % 1007,9 hPa 0,0 mm 0,9 km/h (0 Bft) W 270 0 min -0,8 C 0,0 km/h (0 Bft)
29.02.2016 12:17 0,8 C 1,6 C 89 % 1007,9 hPa 0,0 mm 0,9 km/h (0 Bft) W 270 0 min -0,8 C 0,0 km/h (0 Bft)
29.02.2016 12:18 0,8 C 1,6 C 89 % 1007,9 hPa 0,0 mm 0,6 km/h (0 Bft) W 270 0 min -0,8 C 0,0 km/h (0 Bft)
29.02.2016 12:19 0,8 C 1,6 C 89 % 1007,9 hPa 0,0 mm 0,6 km/h (0 Bft) W 270 0 min -0,8 C 0,0 km/h (0 Bft)
29.02.2016 12:20 0,8 C 1,7 C 89 % 1007,9 hPa 0,0 mm 0,3 km/h (0 Bft) W 270 0 min -0,8 C 3,3 km/h (1 Bft)
29.02.2016 12:21 0,8 C 1,7 C 89 % 1007,9 hPa 0,0 mm 0,3 km/h (0 Bft) W 270 0 min -0,8 C 3,3 km/h (1 Bft)
29.02.2016 12:22 0,8 C 1,7 C 89 % 1007,9 hPa 0,0 mm 0,3 km/h (0 Bft) W-SW 247 0 min -0,8 C 0,0 km/h (0 Bft)
29.02.2016 12:23 0,8 C 1,7 C 89 % 1007,9 hPa 0,0 mm 0,3 km/h (0 Bft) W-SW 247 0 min -0,8 C 0,0 km/h (0 Bft)
29.02.2016 12:24 0,8 C 1,7 C 89 % 1007,9 hPa 0,0 mm 0,3 km/h (0 Bft) W-SW 247 0 min -0,8 C 3,0 km/h (1 Bft)
29.02.2016 12:25 0,8 C 1,7 C 89 % 1007,9 hPa 0,0 mm 0,3 km/h (0 Bft) W-SW 247 0 min -0,8 C 3,0 km/h (1 Bft)
29.02.2016 12:26 0,8 C 1,7 C 89 % 1007,9 hPa 0,0 mm 0,3 km/h (0 Bft) W-SW 247 0 min -0,8 C 0,0 km/h (0 Bft)
29.02.2016 12:27 0,8 C 1,7 C 89 % 1007,9 hPa 0,0 mm 0,3 km/h (0 Bft) W-SW 247 0 min -0,8 C 0,0 km/h (0 Bft)
29.02.2016 12:28 0,8 C 1,7 C 89 % 1007,9 hPa 0,0 mm 0,6 km/h (0 Bft) W 270 0 min -0,8 C 0,0 km/h (0 Bft)
29.02.2016 12:29 0,8 C 1,7 C 89 % 1007,9 hPa 0,0 mm 0,6 km/h (0 Bft) W 270 0 min -0,8 C 0,0 km/h (0 Bft)
29.02.2016 12:30 0,8 C 1,6 C 89 % 1007,9 hPa 0,0 mm 0,9 km/h (0 Bft) W-SW 247 0 min -0,8 C 0,0 km/h (0 Bft)
29.02.2016 12:31 0,8 C 1,6 C 89 % 1007,9 hPa 0,0 mm 0,9 km/h (0 Bft) W-SW 247 0 min -0,8 C 0,0 km/h (0 Bft)
29.02.2016 12:32 0,8 C 1,7 C 89 % 1007,9 hPa 0,0 mm 0,6 km/h (0 Bft) W-SW 247 0 min -0,8 C 0,0 km/h (0 Bft)
29.02.2016 12:33 0,8 C 1,7 C 89 % 1007,9 hPa 0,0 mm 0,6 km/h (0 Bft) W-SW 247 0 min -0,8 C 0,0 km/h (0 Bft)
29.02.2016 12:34 0,8 C 1,6 C 89 % 1007,9 hPa 0,0 mm 1,8 km/h (1 Bft) W 270 0 min -0,8 C 8,9 km/h (2 Bft)
29.02.2016 12:35 0,8 C 1,6 C 89 % 1007,9 hPa 0,0 mm 1,8 km/h (1 Bft) W 270 0 min -0,8 C 8,9 km/h (2 Bft)
29.02.2016 12:36 0,7 C 1,5 C 89 % 1007,9 hPa 0,0 mm 2,1 km/h (1 Bft) W-SW 247 0 min -0,9 C 3,9 km/h (1 Bft)
29.02.2016 12:37 0,7 C 1,5 C 89 % 1007,9 hPa 0,0 mm 2,1 km/h (1 Bft) W-SW 247 0 min -0,9 C 3,9 km/h (1 Bft)
29.02.2016 12:38 0,7 C 1,5 C 89 % 1007,9 hPa 0,0 mm 2,4 km/h (1 Bft) SW 225 0 min -0,9 C 6,9 km/h (2 Bft)
29.02.2016 12:39 0,7 C 1,5 C 89 % 1007,9 hPa 0,0 mm 2,4 km/h (1 Bft) SW 225 0 min -0,9 C 6,9 km/h (2 Bft)
29.02.2016 12:40 0,7 C 1,5 C 89 % 1007,9 hPa 0,0 mm 2,4 km/h (1 Bft) W-SW 247 0 min -0,9 C 4,8 km/h (1 Bft)
29.02.2016 12:41 0,7 C 1,5 C 89 % 1007,9 hPa 0,0 mm 2,4 km/h (1 Bft) W-SW 247 0 min -0,9 C 4,8 km/h (1 Bft)
29.02.2016 12:42 0,7 C 1,4 C 89 % 1007,9 hPa 0,0 mm 3,3 km/h (1 Bft) SW 225 0 min -0,9 C 4,8 km/h (1 Bft)
29.02.2016 12:43 0,7 C 1,4 C 89 % 1007,9 hPa 0,0 mm 3,3 km/h (1 Bft) SW 225 0 min -0,9 C 4,8 km/h (1 Bft)
29.02.2016 12:44 0,7 C 1,3 C 89 % 1007,9 hPa 0,0 mm 3,0 km/h (1 Bft) NW 315 0 min -0,9 C 3,9 km/h (1 Bft)
29.02.2016 12:45 0,7 C 1,3 C 89 % 1007,9 hPa 0,0 mm 3,0 km/h (1 Bft) NW 315 0 min -0,9 C 3,9 km/h (1 Bft)
29.02.2016 12:46 0,7 C 1,4 C 89 % 1007,9 hPa 0,0 mm 2,4 km/h (1 Bft) W 270 0 min -0,9 C 3,0 km/h (1 Bft)
29.02.2016 12:47 0,7 C 1,4 C 89 % 1007,9 hPa 0,0 mm 2,4 km/h (1 Bft) W 270 0 min -0,9 C 3,0 km/h (1 Bft)
29.02.2016 12:48 0,7 C 1,4 C 89 % 1007,9 hPa 0,0 mm 2,4 km/h (1 Bft) W-SW 247 0 min -0,9 C 3,0 km/h (1 Bft)
29.02.2016 12:49 0,7 C 1,4 C 89 % 1007,9 hPa 0,0 mm 2,4 km/h (1 Bft) W-SW 247 0 min -0,9 C 3,0 km/h (1 Bft)
29.02.2016 12:50 0,7 C 1,4 C 89 % 1007,9 hPa 0,0 mm 2,1 km/h (1 Bft) W-SW 247 0 min -0,9 C 3,6 km/h (1 Bft)
29.02.2016 12:51 0,7 C 1,4 C 89 % 1007,9 hPa 0,0 mm 2,1 km/h (1 Bft) W-SW 247 0 min -0,9 C 3,6 km/h (1 Bft)
29.02.2016 12:52 0,7 C 1,5 C 89 % 1007,9 hPa 0,0 mm 2,1 km/h (1 Bft) W-NW 292 0 min -0,9 C 3,3 km/h (1 Bft)
29.02.2016 12:53 0,7 C 1,5 C 89 % 1007,9 hPa 0,0 mm 2,1 km/h (1 Bft) W-NW 292 0 min -0,9 C 3,3 km/h (1 Bft)
29.02.2016 12:54 0,7 C 1,4 C 89 % 1007,9 hPa 0,0 mm 2,1 km/h (1 Bft) W-NW 292 0 min -0,9 C 4,8 km/h (1 Bft)
29.02.2016 12:55 0,7 C 1,4 C 89 % 1007,9 hPa 0,0 mm 2,1 km/h (1 Bft) W-NW 292 0 min -0,9 C 4,8 km/h (1 Bft)
29.02.2016 12:56 0,7 C 1,4 C 89 % 1007,9 hPa 0,0 mm 1,8 km/h (1 Bft) SW 225 0 min -0,9 C 4,5 km/h (1 Bft)
29.02.2016 12:57 0,7 C 1,4 C 89 % 1007,9 hPa 0,0 mm 1,8 km/h (1 Bft) SW 225 0 min -0,9 C 4,5 km/h (1 Bft)
29.02.2016 12:58 0,7 C 1,4 C 89 % 1007,9 hPa 0,0 mm 2,1 km/h (1 Bft) W-SW 247 0 min -0,9 C 6,3 km/h (2 Bft)
29.02.2016 12:59 0,7 C 1,4 C 89 % 1007,9 hPa 0,0 mm 2,1 km/h (1 Bft) W-SW 247 0 min -0,9 C 6,3 km/h (2 Bft)
29.02.2016 13:00 0,7 C 1,4 C 89 % 1007,9 hPa 0,0 mm 2,1 km/h (1 Bft) W 270 0 min -0,9 C 0,0 km/h (0 Bft)
29.02.2016 13:01 0,7 C 1,4 C 89 % 1007,9 hPa 0,0 mm 2,1 km/h (1 Bft) W 270 0 min -0,9 C 0,0 km/h (0 Bft)
29.02.2016 13:02 0,7 C 1,4 C 89 % 1007,9 hPa 0,0 mm 1,8 km/h (1 Bft) W-SW 247 0 min -0,9 C 0,0 km/h (0 Bft)
29.02.2016 13:03 0,7 C 1,4 C 89 % 1007,9 hPa 0,0 mm 1,8 km/h (1 Bft) W-SW 247 0 min -0,9 C 0,0 km/h (0 Bft)
29.02.2016 13:04 0,7 C 1,5 C 89 % 1007,9 hPa 0,0 mm 1,8 km/h (1 Bft) W-SW 247 0 min -0,9 C 3,6 km/h (1 Bft)
29.02.2016 13:05 0,7 C 1,5 C 89 % 1007,9 hPa 0,0 mm 1,8 km/h (1 Bft) W-SW 247 0 min -0,9 C 3,6 km/h (1 Bft)
29.02.2016 13:06 0,7 C 1,5 C 89 % 1007,9 hPa 0,0 mm 1,2 km/h (1 Bft) W-SW 247 0 min -0,9 C 0,0 km/h (0 Bft)
29.02.2016 13:07 0,7 C 1,5 C 89 % 1007,9 hPa 0,0 mm 1,2 km/h (1 Bft) W-SW 247 0 min -0,9 C 0,0 km/h (0 Bft)
29.02.2016 13:08 0,7 C 1,5 C 89 % 1007,9 hPa 0,0 mm 1,2 km/h (1 Bft) W-SW 247 0 min -0,9 C 4,2 km/h (1 Bft)
29.02.2016 13:09 0,7 C 1,5 C 89 % 1007,9 hPa 0,0 mm 1,2 km/h (1 Bft) W-SW 247 0 min -0,9 C 4,2 km/h (1 Bft)
29.02.2016 13:10 0,7 C 1,5 C 89 % 1007,9 hPa 0,0 mm 1,5 km/h (1 Bft) SW 225 0 min -0,9 C 9,5 km/h (2 Bft)
29.02.2016 13:11 0,7 C 1,5 C 89 % 1007,9 hPa 0,0 mm 1,5 km/h (1 Bft) SW 225 0 min -0,9 C 9,5 km/h (2 Bft)
29.02.2016 13:12 0,7 C 1,5 C 89 % 1007,9 hPa 0,0 mm 1,8 km/h (1 Bft) W-SW 247 0 min -0,9 C 0,0 km/h (0 Bft)
29.02.2016 13:13 0,7 C 1,5 C 89 % 1007,9 hPa 0,0 mm 1,8 km/h (1 Bft) W-SW 247 0 min -0,9 C 0,0 km/h (0 Bft)
29.02.2016 13:14 0,7 C 1,4 C 89 % 1007,9 hPa 0,0 mm 2,4 km/h (1 Bft) W-SW 247 0 min -0,9 C 4,2 km/h (1 Bft)
29.02.2016 13:15 0,7 C 1,4 C 89 % 1007,9 hPa 0,0 mm 2,4 km/h (1 Bft) W-SW 247 0 min -0,9 C 4,2 km/h (1 Bft)
29.02.2016 13:16 0,7 C 1,4 C 89 % 1007,9 hPa 0,0 mm 3,0 km/h (1 Bft) SW 225 0 min -0,9 C 0,0 km/h (0 Bft)
29.02.2016 13:17 0,7 C 1,4 C 89 % 1007,9 hPa 0,0 mm 3,0 km/h (1 Bft) SW 225 0 min -0,9 C 0,0 km/h (0 Bft)
29.02.2016 13:18 0,7 C 1,4 C 89 % 1007,9 hPa 0,0 mm 3,3 km/h (1 Bft) W-SW 247 0 min -0,9 C 0,0 km/h (0 Bft)
29.02.2016 13:19 0,7 C 1,4 C 89 % 1007,9 hPa 0,0 mm 3,3 km/h (1 Bft) W-SW 247 0 min -0,9 C 0,0 km/h (0 Bft)
29.02.2016 13:20 0,7 C 1,5 C 89 % 1007,9 hPa 0,0 mm 2,7 km/h (1 Bft) W-SW 247 0 min -0,9 C 3,3 km/h (1 Bft)
29.02.2016 13:21 0,7 C 1,5 C 89 % 1007,9 hPa 0,0 mm 2,7 km/h (1 Bft) W-SW 247 0 min -0,9 C 3,3 km/h (1 Bft)
29.02.2016 13:22 0,7 C 1,6 C 89 % 1007,9 hPa 0,0 mm 3,0 km/h (1 Bft) SW 225 0 min -0,9 C 11,9 km/h (2 Bft)
29.02.2016 13:23 0,7 C 1,6 C 89 % 1007,9 hPa 0,0 mm 3,0 km/h (1 Bft) SW 225 0 min -0,9 C 11,9 km/h (2 Bft)
29.02.2016 13:24 0,7 C 1,6 C 89 % 1007,9 hPa 0,0 mm 3,9 km/h (1 Bft) W 270 0 min -0,9 C 6,0 km/h (2 Bft)
29.02.2016 13:25 0,7 C 1,6 C 89 % 1007,9 hPa 0,0 mm 3,9 km/h (1 Bft) W 270 0 min -0,9 C 6,0 km/h (2 Bft)
29.02.2016 13:26 0,8 C 1,6 C 89 % 1007,9 hPa 0,0 mm 3,3 km/h (1 Bft) W-SW 247 0 min -0,8 C 5,4 km/h (1 Bft)
29.02.2016 13:27 0,8 C 1,6 C 89 % 1007,9 hPa 0,0 mm 3,3 km/h (1 Bft) W-SW 247 0 min -0,8 C 5,4 km/h (1 Bft)
29.02.2016 13:28 0,8 C 1,6 C 89 % 1007,9 hPa 0,0 mm 3,3 km/h (1 Bft) W-SW 247 0 min -0,8 C 3,6 km/h (1 Bft)
29.02.2016 13:29 0,8 C 1,6 C 89 % 1007,9 hPa 0,0 mm 3,3 km/h (1 Bft) W-SW 247 0 min -0,8 C 3,6 km/h (1 Bft)
29.02.2016 13:30 0,8 C 1,6 C 89 % 1007,9 hPa 0,0 mm 3,9 km/h (1 Bft) W-SW 247 0 min -0,8 C 9,5 km/h (2 Bft)
29.02.2016 13:31 0,8 C 1,6 C 89 % 1007,9 hPa 0,0 mm 3,9 km/h (1 Bft) W-SW 247 0 min -0,8 C 9,5 km/h (2 Bft)
29.02.2016 13:32 0,8 C 1,6 C 89 % 1007,9 hPa 0,0 mm 4,8 km/h (1 Bft) W-SW 247 0 min -0,8 C 4,5 km/h (1 Bft)
29.02.2016 13:33 0,8 C 1,6 C 89 % 1007,9 hPa 0,0 mm 4,8 km/h (1 Bft) W-SW 247 0 min -0,8 C 4,5 km/h (1 Bft)
29.02.2016 13:34 0,8 C 1,6 C 89 % 1007,9 hPa 0,0 mm 3,9 km/h (1 Bft) W-SW 247 0 min -0,8 C 3,6 km/h (1 Bft)
29.02.2016 13:35 0,8 C 1,6 C 89 % 1007,9 hPa 0,0 mm 3,9 km/h (1 Bft) W-SW 247 0 min -0,8 C 3,6 km/h (1 Bft)
29.02.2016 13:36 0,8 C 1,6 C 89 % 1007,9 hPa 0,0 mm 3,9 km/h (1 Bft) W-SW 247 0 min -0,8 C 8,3 km/h (2 Bft)
29.02.2016 13:37 0,8 C 1,6 C 89 % 1007,9 hPa 0,0 mm 3,9 km/h (1 Bft) W-SW 247 0 min -0,8 C 8,3 km/h (2 Bft)
29.02.2016 13:38 0,8 C 1,7 C 89 % 1007,9 hPa 0,0 mm 4,2 km/h (1 Bft) W-NW 292 0 min -0,8 C 0,0 km/h (0 Bft)
29.02.2016 13:39 0,8 C 1,7 C 89 % 1007,9 hPa 0,0 mm 4,2 km/h (1 Bft) W-NW 292 0 min -0,8 C 0,0 km/h (0 Bft)
29.02.2016 13:40 0,8 C 1,7 C 89 % 1007,9 hPa 0,0 mm 3,9 km/h (1 Bft) W-NW 292 0 min -0,8 C 0,0 km/h (0 Bft)
29.02.2016 13:41 0,8 C 1,7 C 89 % 1007,9 hPa 0,0 mm 3,9 km/h (1 Bft) W-NW 292 0 min -0,8 C 0,0 km/h (0 Bft)
29.02.2016 13:42 0,8 C 1,7 C 89 % 1007,9 hPa 0,0 mm 2,4 km/h (1 Bft) W 270 0 min -0,8 C 0,0 km/h (0 Bft)
29.02.2016 13:43 0,8 C 1,7 C 89 % 1007,9 hPa 0,0 mm 2,4 km/h (1 Bft) W 270 0 min -0,8 C 0,0 km/h (0 Bft)
29.02.2016 13:44 0,8 C 1,8 C 89 % 1007,9 hPa 0,0 mm 1,8 km/h (1 Bft) W 270 0 min -0,8 C 0,0 km/h (0 Bft)
29.02.2016 13:45 0,8 C 1,8 C 89 % 1007,9 hPa 0,0 mm 1,8 km/h (1 Bft) W 270 0 min -0,8 C 0,0 km/h (0 Bft)
29.02.2016 13:46 0,8 C 1,7 C 89 % 1007,9 hPa 0,0 mm 1,8 km/h (1 Bft) SW 225 0 min -0,8 C 10,1 km/h (2 Bft)
29.02.2016 13:47 0,8 C 1,7 C 89 % 1007,9 hPa 0,0 mm 1,8 km/h (1 Bft) SW 225 0 min -0,8 C 10,1 km/h (2 Bft)
29.02.2016 13:48 0,8 C 1,7 C 89 % 1008,1 hPa 0,0 mm 1,8 km/h (1 Bft) W 270 0 min -0,8 C 4,2 km/h (1 Bft)
29.02.2016 13:49 0,8 C 1,7 C 89 % 1008,1 hPa 0,0 mm 1,8 km/h (1 Bft) W 270 0 min -0,8 C 4,2 km/h (1 Bft)
29.02.2016 13:53 0,8 C 1,7 C 89 % 1008,1 hPa 0,0 mm 3,0 km/h (1 Bft) W-SW 247 0 min -0,8 C 7,5 km/h (2 Bft)
29.02.2016 13:58 0,8 C 1,7 C 89 % 1008,1 hPa 0,0 mm 3,6 km/h (1 Bft) W 270 0 min -0,8 C 3,9 km/h (1 Bft)
29.02.2016 14:03 0,9 C 1,6 C 88 % 1008,1 hPa 0,0 mm 4,8 km/h (1 Bft) W-SW 247 0 min -0,9 C 3,0 km/h (1 Bft)
29.02.2016 14:08 0,9 C 1,7 C 88 % 1008,1 hPa 0,0 mm 4,8 km/h (1 Bft) W-NW 292 0 min -0,9 C 5,7 km/h (1 Bft)
29.02.2016 14:13 1,0 C 1,8 C 88 % 1008,1 hPa 0,0 mm 4,5 km/h (1 Bft) W-NW 292 0 min -0,8 C 6,0 km/h (2 Bft)
29.02.2016 14:18 0,9 C 1,7 C 88 % 1008,1 hPa 0,7 mm 4,8 km/h (1 Bft) W-NW 292 0 min -0,9 C 13,7 km/h (3 Bft)
29.02.2016 14:23 0,9 C 1,4 C 88 % 1008,1 hPa 0,0 mm 6,3 km/h (2 Bft) SW 225 0 min -0,9 C 6,0 km/h (2 Bft)
29.02.2016 14:28 0,9 C 1,4 C 88 % 1008,2 hPa 0,0 mm 6,0 km/h (2 Bft) W-SW 247 0 min -0,9 C 5,4 km/h (1 Bft)
29.02.2016 14:33 0,8 C 1,4 C 88 % 1008,2 hPa 0,0 mm 5,1 km/h (1 Bft) W-NW 292 0 min -1,0 C 6,3 km/h (2 Bft)
29.02.2016 14:38 0,8 C 1,3 C 88 % 1008,2 hPa 0,0 mm 5,4 km/h (1 Bft) W-SW 247 0 min -1,0 C 7,2 km/h (2 Bft)
29.02.2016 14:43 0,8 C 1,2 C 88 % 1008,2 hPa 0,0 mm 5,7 km/h (1 Bft) SW 225 0 min -1,0 C 6,6 km/h (2 Bft)
29.02.2016 14:48 0,8 C 1,1 C 88 % 1008,2 hPa 0,0 mm 6,9 km/h (2 Bft) SW 225 0 min -1,0 C 6,3 km/h (2 Bft)
29.02.2016 14:53 0,8 C 1,0 C 88 % 1008,2 hPa 0,7 mm 7,5 km/h (2 Bft) W-SW 247 0 min -1,0 C 8,3 km/h (2 Bft)
29.02.2016 14:58 0,8 C 1,0 C 88 % 1008,2 hPa 0,0 mm 6,9 km/h (2 Bft) NW 315 0 min -1,0 C 3,3 km/h (1 Bft)
29.02.2016 15:03 0,8 C 1,0 C 88 % 1008,2 hPa 0,0 mm 7,2 km/h (2 Bft) W 270 0 min -1,0 C 5,1 km/h (1 Bft)
29.02.2016 15:08 0,8 C 1,0 C 88 % 1008,6 hPa 0,0 mm 6,9 km/h (2 Bft) W-SW 247 0 min -1,0 C 7,2 km/h (2 Bft)
29.02.2016 15:13 0,8 C 1,2 C 88 % 1008,6 hPa 0,0 mm 5,4 km/h (1 Bft) W-SW 247 0 min -1,0 C 6,9 km/h (2 Bft)
29.02.2016 15:18 0,8 C 1,2 C 88 % 1008,6 hPa 0,0 mm 4,8 km/h (1 Bft) SW 225 0 min -1,0 C 5,7 km/h (1 Bft)
29.02.2016 15:23 0,8 C 1,1 C 88 % 1008,6 hPa 0,0 mm 6,3 km/h (2 Bft) W 270 0 min -1,0 C 5,1 km/h (1 Bft)
29.02.2016 15:28 0,8 C 0,9 C 88 % 1008,7 hPa 0,0 mm 6,9 km/h (2 Bft) SW 225 0 min -1,0 C 6,9 km/h (2 Bft)
29.02.2016 15:33 0,8 C 1,0 C 88 % 1008,7 hPa 0,0 mm 6,0 km/h (2 Bft) W-SW 247 0 min -1,0 C 7,7 km/h (2 Bft)
29.02.2016 15:38 0,8 C 1,1 C 88 % 1008,7 hPa 0,0 mm 5,4 km/h (1 Bft) W 270 0 min -1,0 C 6,0 km/h (2 Bft)
29.02.2016 15:43 0,8 C 1,0 C 88 % 1008,7 hPa 0,7 mm 5,7 km/h (1 Bft) W 270 0 min -1,0 C 6,0 km/h (2 Bft)
29.02.2016 15:48 0,8 C 1,0 C 88 % 1008,9 hPa 0,0 mm 6,0 km/h (2 Bft) W 270 0 min -1,0 C 3,9 km/h (1 Bft)
29.02.2016 15:53 0,8 C 0,8 C 88 % 1008,9 hPa 0,0 mm 6,6 km/h (2 Bft) W-SW 247 0 min -1,0 C 6,9 km/h (2 Bft)
29.02.2016 15:58 0,8 C 0,9 C 88 % 1008,9 hPa 0,0 mm 6,0 km/h (2 Bft) W-SW 247 0 min -1,0 C 10,1 km/h (2 Bft)
29.02.2016 16:03 0,7 C 0,8 C 88 % 1008,9 hPa 0,0 mm 5,7 km/h (1 Bft) W-SW 247 0 min -1,1 C 11,0 km/h (2 Bft)
29.02.2016 16:07 0,7 C 0,7 C 88 % 1008,9 hPa 0,0 mm 6,3 km/h (2 Bft) W-NW 292 0 min -1,1 C 9,2 km/h (2 Bft)
29.02.2016 16:08 0,7 C 0,6 C 88 % 1008,7 hPa 0,0 mm 6,9 km/h (2 Bft) W 270 0 min -1,1 C 4,8 km/h (1 Bft)
29.02.2016 16:13 0,7 C 0,5 C 88 % 1008,7 hPa 0,0 mm 7,2 km/h (2 Bft) W-NW 292 0 min -1,1 C 4,8 km/h (1 Bft)
29.02.2016 16:18 0,7 C 0,4 C 88 % 1008,7 hPa 0,0 mm 7,7 km/h (2 Bft) W 270 0 min -1,1 C 19,7 km/h (3 Bft)
29.02.2016 16:23 0,7 C 0,3 C 88 % 1008,7 hPa 0,7 mm 8,0 km/h (2 Bft) W 270 0 min -1,1 C 10,1 km/h (2 Bft)
29.02.2016 16:28 0,7 C 0,4 C 88 % 1009,3 hPa 0,0 mm 6,9 km/h (2 Bft) W-NW 292 0 min -1,1 C 4,5 km/h (1 Bft)
29.02.2016 16:33 0,7 C 0,6 C 88 % 1009,3 hPa 0,0 mm 5,1 km/h (1 Bft) W-NW 292 0 min -1,1 C 6,9 km/h (2 Bft)
29.02.2016 16:38 0,6 C 0,5 C 88 % 1009,3 hPa 0,0 mm 5,4 km/h (1 Bft) W-NW 292 0 min -1,2 C 5,7 km/h (1 Bft)
29.02.2016 16:43 0,6 C 0,1 C 88 % 1009,3 hPa 0,0 mm 8,0 km/h (2 Bft) W 270 0 min -1,2 C 10,4 km/h (2 Bft)
29.02.2016 16:48 0,6 C 0,0 C 88 % 1009,6 hPa 0,0 mm 8,0 km/h (2 Bft) W-SW 247 0 min -1,2 C 8,6 km/h (2 Bft)
29.02.2016 16:53 0,6 C 0,1 C 88 % 1009,6 hPa 0,0 mm 6,6 km/h (2 Bft) W-SW 247 0 min -1,2 C 8,3 km/h (2 Bft)
29.02.2016 16:58 0,6 C 0,3 C 88 % 1009,6 hPa 0,0 mm 4,8 km/h (1 Bft) W-NW 292 0 min -1,2 C 0,0 km/h (0 Bft)
29.02.2016 17:03 0,5 C 0,1 C 88 % 1009,6 hPa 0,0 mm 6,3 km/h (2 Bft) SW 225 0 min -1,3 C 9,2 km/h (2 Bft)
29.02.2016 17:08 0,5 C -0,1 C 89 % 1009,9 hPa 0,0 mm 7,7 km/h (2 Bft) SW 225 0 min -1,1 C 16,7 km/h (3 Bft)
29.02.2016 17:13 0,5 C -0,1 C 89 % 1009,9 hPa 0,0 mm 7,2 km/h (2 Bft) W-NW 292 0 min -1,1 C 8,6 km/h (2 Bft)
29.02.2016 17:18 0,4 C 0,0 C 88 % 1009,9 hPa 0,0 mm 6,6 km/h (2 Bft) W 270 0 min -1,3 C 3,6 km/h (1 Bft)
29.02.2016 17:23 0,4 C -0,1 C 89 % 1009,9 hPa 0,0 mm 6,9 km/h (2 Bft) W 270 0 min -1,2 C 10,1 km/h (2 Bft)
29.02.2016 17:25 0,4 C -0,1 C 89 % 1009,9 hPa 0,0 mm 6,9 km/h (2 Bft) W 270 0 min -1,2 C 10,1 km/h (2 Bft)
29.02.2016 17:28 0,4 C -0,1 C 89 % 1009,9 hPa 0,0 mm 6,9 km/h (2 Bft) NW 315 0 min -1,2 C 8,9 km/h (2 Bft)
29.02.2016 17:33 0,4 C -0,1 C 89 % 1009,9 hPa 0,0 mm 6,9 km/h (2 Bft) W-SW 247 0 min -1,2 C 8,9 km/h (2 Bft)
29.02.2016 17:34 0,4 C -0,1 C 89 % 1009,9 hPa 0,0 mm 6,9 km/h (2 Bft) W-SW 247 0 min -1,2 C 5,7 km/h (1 Bft)
29.02.2016 17:35 0,4 C -0,1 C 89 % 1009,9 hPa 0,0 mm 6,9 km/h (2 Bft) W-SW 247 0 min -1,2 C 5,7 km/h (1 Bft)
29.02.2016 17:38 0,4 C -0,1 C 89 % 1009,9 hPa 0,0 mm 6,3 km/h (2 Bft) W 270 0 min -1,2 C 5,7 km/h (1 Bft)
29.02.2016 17:47 0,4 C -0,1 C 89 % 1009,9 hPa 0,0 mm 6,3 km/h (2 Bft) W 270 0 min -1,2 C 5,7 km/h (1 Bft)
29.02.2016 17:50 0,2 C -0,2 C 88 % 1010,4 hPa 0,0 mm 6,9 km/h (2 Bft) W 270 0 min -1,5 C 6,3 km/h (2 Bft)
29.02.2016 17:58 0,1 C -0,1 C 88 % 1010,4 hPa 0,0 mm 5,4 km/h (1 Bft) W 270 0 min -1,6 C 5,1 km/h (1 Bft)
29.02.2016 18:00 0,1 C -0,1 C 88 % 1010,4 hPa 0,0 mm 5,1 km/h (1 Bft) W 270 0 min -1,6 C 8,9 km/h (2 Bft)
29.02.2016 18:04 0,1 C -0,1 C 88 % 1010,4 hPa 0,0 mm 5,1 km/h (1 Bft) W 270 0 min -1,6 C 8,9 km/h (2 Bft)
29.02.2016 18:05 0,1 C -0,3 C 88 % 1010,4 hPa 0,0 mm 6,9 km/h (2 Bft) W 270 0 min -1,6 C 6,6 km/h (2 Bft)
29.02.2016 18:10 0,1 C -0,5 C 88 % 1010,6 hPa 0,0 mm 8,3 km/h (2 Bft) W 270 0 min -1,6 C 8,6 km/h (2 Bft)
29.02.2016 18:15 0,1 C -0,4 C 88 % 1010,6 hPa 0,0 mm 7,5 km/h (2 Bft) W-NW 292 0 min -1,6 C 16,7 km/h (3 Bft)
29.02.2016 18:20 0,1 C -0,4 C 88 % 1010,6 hPa 0,0 mm 7,2 km/h (2 Bft) W-NW 292 0 min -1,6 C 9,5 km/h (2 Bft)
29.02.2016 18:25 0,1 C -0,4 C 88 % 1010,6 hPa 0,0 mm 7,7 km/h (2 Bft) W-NW 292 0 min -1,6 C 7,7 km/h (2 Bft)
29.02.2016 18:26 0,1 C -0,4 C 88 % 1010,6 hPa 0,0 mm 7,7 km/h (2 Bft) W-NW 292 0 min -1,6 C 7,7 km/h (2 Bft)
29.02.2016 18:30 0,1 C -0,4 C 88 % 1010,7 hPa 0,0 mm 7,5 km/h (2 Bft) W 270 0 min -1,6 C 14,9 km/h (3 Bft)
29.02.2016 18:35 0,1 C -0,4 C 88 % 1010,7 hPa 0,0 mm 7,2 km/h (2 Bft) W 270 0 min -1,6 C 10,1 km/h (2 Bft)
29.02.2016 18:40 0,0 C -0,5 C 88 % 1010,7 hPa 0,0 mm 7,2 km/h (2 Bft) NW 315 0 min -1,7 C 8,0 km/h (2 Bft)
29.02.2016 18:41 0,0 C -0,5 C 88 % 1010,7 hPa 0,0 mm 7,2 km/h (2 Bft) NW 315 0 min -1,7 C 8,0 km/h (2 Bft)
29.02.2016 18:45 0,0 C -0,3 C 88 % 1010,7 hPa 0,0 mm 6,3 km/h (2 Bft) W 270 0 min -1,7 C 3,3 km/h (1 Bft)
29.02.2016 18:50 0,0 C -0,4 C 88 % 1011,1 hPa 0,0 mm 6,9 km/h (2 Bft) W-SW 247 0 min -1,7 C 12,5 km/h (3 Bft)
29.02.2016 18:55 -0,1 C -0,7 C 88 % 1011,1 hPa 0,0 mm 8,3 km/h (2 Bft) W 270 0 min -1,8 C 9,8 km/h (2 Bft)
29.02.2016 19:00 -0,1 C -0,6 C 88 % 1011,1 hPa 0,0 mm 7,7 km/h (2 Bft) W 270 0 min -1,8 C 3,0 km/h (1 Bft)
29.02.2016 19:05 -0,1 C -0,6 C 91 % 1011,1 hPa 0,0 mm 6,6 km/h (2 Bft) W 270 0 min -1,4 C 0,0 km/h (0 Bft)
29.02.2016 19:10 -0,2 C -0,3 C 88 % 1011,6 hPa 0,0 mm 3,6 km/h (1 Bft) NW 315 0 min -1,9 C 0,0 km/h (0 Bft)
29.02.2016 19:15 -0,2 C -0,3 C 88 % 1011,6 hPa 0,0 mm 0,0 km/h (0 Bft) NW 315 0 min -1,9 C 0,0 km/h (0 Bft)
29.02.2016 19:20 -0,2 C -0,3 C 88 % 1011,6 hPa 0,0 mm 0,0 km/h (0 Bft) NW 315 0 min -1,9 C 0,0 km/h (0 Bft)
29.02.2016 19:25 -0,3 C -0,4 C 88 % 1011,6 hPa 0,0 mm 0,0 km/h (0 Bft) NW 315 0 min -2,0 C 0,0 km/h (0 Bft)
29.02.2016 19:30 -0,3 C -0,5 C 91 % 1011,9 hPa 0,0 mm 0,0 km/h (0 Bft) NW 315 0 min -1,6 C 0,0 km/h (0 Bft)
29.02.2016 19:35 -0,5 C -0,6 C 88 % 1011,9 hPa 0,0 mm 0,0 km/h (0 Bft) NW 315 0 min -2,2 C 0,0 km/h (0 Bft)
29.02.2016 19:40 -0,5 C -0,7 C 91 % 1011,9 hPa 0,0 mm 0,0 km/h (0 Bft) NW 315 0 min -1,8 C 0,0 km/h (0 Bft)
29.02.2016 19:45 -0,6 C -0,7 C 88 % 1011,9 hPa 0,0 mm 0,0 km/h (0 Bft) NW 315 0 min -2,3 C 0,0 km/h (0 Bft)
29.02.2016 19:50 -0,6 C -0,7 C 88 % 1012,4 hPa 0,0 mm 0,0 km/h (0 Bft) NW 315 0 min -2,3 C 0,0 km/h (0 Bft)
29.02.2016 19:55 -0,6 C -0,7 C 88 % 1012,4 hPa 0,0 mm 0,0 km/h (0 Bft) NW 315 0 min -2,3 C 0,0 km/h (0 Bft)
29.02.2016 20:00 -0,6 C -0,7 C 88 % 1012,4 hPa 0,0 mm 0,0 km/h (0 Bft) NW 315 0 min -2,3 C 0,0 km/h (0 Bft)
29.02.2016 20:05 -0,7 C -0,8 C 88 % 1012,4 hPa 0,0 mm 0,0 km/h (0 Bft) NW 315 0 min -2,4 C 0,0 km/h (0 Bft)
29.02.2016 20:10 -0,7 C -0,9 C 91 % 1012,4 hPa 0,0 mm 0,0 km/h (0 Bft) NW 315 0 min -2,0 C 0,0 km/h (0 Bft)
29.02.2016 20:15 -0,9 C -1,0 C 88 % 1012,4 hPa 0,0 mm 0,0 km/h (0 Bft) NW 315 0 min -2,6 C 0,0 km/h (0 Bft)
29.02.2016 20:20 -0,9 C -1,0 C 88 % 1012,4 hPa 0,0 mm 0,0 km/h (0 Bft) NW 315 0 min -2,6 C 0,0 km/h (0 Bft)
29.02.2016 20:25 -1,0 C -1,0 C 88 % 1012,4 hPa 0,0 mm 0,0 km/h (0 Bft) NW 315 0 min -2,7 C 0,0 km/h (0 Bft)
29.02.2016 20:30 -1,0 C -1,0 C 88 % 1012,8 hPa 0,0 mm 0,0 km/h (0 Bft) NW 315 0 min -2,7 C 0,0 km/h (0 Bft)
29.02.2016 20:35 -1,0 C -1,0 C 88 % 1012,8 hPa 0,0 mm 0,0 km/h (0 Bft) NW 315 0 min -2,7 C 0,0 km/h (0 Bft)
29.02.2016 20:40 -1,0 C -1,0 C 88 % 1012,8 hPa 0,0 mm 0,0 km/h (0 Bft) NW 315 0 min -2,7 C 0,0 km/h (0 Bft)
29.02.2016 20:45 -1,0 C -1,1 C 88 % 1012,8 hPa 0,0 mm 0,0 km/h (0 Bft) NW 315 0 min -2,7 C 0,0 km/h (0 Bft)
29.02.2016 20:50 -1,0 C -1,1 C 88 % 1013,0 hPa 0,0 mm 0,0 km/h (0 Bft) NW 315 0 min -2,7 C 0,0 km/h (0 Bft)
29.02.2016 20:55 -1,0 C -1,1 C 88 % 1013,0 hPa 0,0 mm 0,0 km/h (0 Bft) NW 315 0 min -2,7 C 0,0 km/h (0 Bft)
29.02.2016 21:00 -1,0 C -1,1 C 88 % 1013,0 hPa 0,0 mm 0,0 km/h (0 Bft) NW 315 0 min -2,7 C 0,0 km/h (0 Bft)
29.02.2016 21:05 -1,1 C -1,1 C 88 % 1013,0 hPa 0,0 mm 0,0 km/h (0 Bft) NW 315 0 min -2,8 C 0,0 km/h (0 Bft)
29.02.2016 21:10 -1,1 C -1,1 C 88 % 1013,2 hPa 0,0 mm 0,0 km/h (0 Bft) NW 315 0 min -2,8 C 0,0 km/h (0 Bft)
29.02.2016 21:15 -1,1 C -1,2 C 88 % 1013,2 hPa 0,0 mm 0,0 km/h (0 Bft) NW 315 0 min -2,8 C 0,0 km/h (0 Bft)
29.02.2016 21:20 -1,2 C -1,3 C 88 % 1013,2 hPa 0,0 mm 0,0 km/h (0 Bft) NW 315 0 min -2,9 C 0,0 km/h (0 Bft)
29.02.2016 21:25 -1,2 C -1,4 C 88 % 1013,2 hPa 0,0 mm 0,0 km/h (0 Bft) NW 315 0 min -2,9 C 0,0 km/h (0 Bft)
29.02.2016 21:30 -1,2 C -1,4 C 88 % 1013,6 hPa 0,0 mm 0,0 km/h (0 Bft) NW 315 0 min -2,9 C 0,0 km/h (0 Bft)
29.02.2016 21:35 -1,2 C -1,4 C 90 % 1013,6 hPa 0,0 mm 0,0 km/h (0 Bft) NW 315 0 min -2,6 C 0,0 km/h (0 Bft)
29.02.2016 21:40 -1,4 C -1,4 C 88 % 1013,6 hPa 0,0 mm 0,0 km/h (0 Bft) NW 315 0 min -3,1 C 0,0 km/h (0 Bft)
29.02.2016 21:41 -1,4 C -1,4 C 88 % 1013,6 hPa 0,0 mm 0,0 km/h (0 Bft) NW 315 0 min -3,1 C 0,0 km/h (0 Bft)
29.02.2016 21:45 -1,4 C -1,5 C 88 % 1013,6 hPa 0,0 mm 0,0 km/h (0 Bft) NW 315 0 min -3,1 C 0,0 km/h (0 Bft)
29.02.2016 21:50 -1,4 C -1,5 C 88 % 1013,8 hPa 0,0 mm 0,0 km/h (0 Bft) NW 315 0 min -3,1 C 0,0 km/h (0 Bft)
29.02.2016 21:55 -1,4 C -1,5 C 88 % 1013,8 hPa 0,0 mm 0,0 km/h (0 Bft) NW 315 0 min -3,1 C 0,0 km/h (0 Bft)
29.02.2016 22:00 -1,5 C -1,6 C 88 % 1013,8 hPa 0,0 mm 0,0 km/h (0 Bft) NW 315 0 min -3,2 C 0,0 km/h (0 Bft)
29.02.2016 22:05 -1,5 C -1,6 C 88 % 1013,8 hPa 0,0 mm 0,0 km/h (0 Bft) NW 315 0 min -3,2 C 0,0 km/h (0 Bft)
29.02.2016 22:10 -1,5 C -1,6 C 88 % 1013,8 hPa 0,0 mm 0,0 km/h (0 Bft) NW 315 0 min -3,2 C 0,0 km/h (0 Bft)
29.02.2016 22:15 -1,6 C -1,6 C 88 % 1013,8 hPa 0,0 mm 0,0 km/h (0 Bft) NW 315 0 min -3,3 C 0,0 km/h (0 Bft)
29.02.2016 22:20 -1,6 C -1,6 C 88 % 1013,8 hPa 0,0 mm 0,0 km/h (0 Bft) NW 315 0 min -3,3 C 0,0 km/h (0 Bft)
29.02.2016 22:25 -1,6 C -1,7 C 88 % 1013,8 hPa 0,0 mm 0,0 km/h (0 Bft) NW 315 0 min -3,3 C 0,0 km/h (0 Bft)
29.02.2016 22:30 -1,6 C -1,7 C 88 % 1014,1 hPa 0,0 mm 0,0 km/h (0 Bft) NW 315 0 min -3,3 C 0,0 km/h (0 Bft)
29.02.2016 22:35 -1,6 C -1,7 C 88 % 1014,1 hPa 0,0 mm 0,0 km/h (0 Bft) NW 315 0 min -3,3 C 0,0 km/h (0 Bft)
29.02.2016 22:40 -1,6 C -1,7 C 88 % 1014,1 hPa 0,0 mm 0,0 km/h (0 Bft) NW 315 0 min -3,3 C 0,0 km/h (0 Bft)
29.02.2016 22:45 -1,7 C -1,8 C 88 % 1014,1 hPa 0,0 mm 0,0 km/h (0 Bft) NW 315 0 min -3,4 C 0,0 km/h (0 Bft)
29.02.2016 22:50 -1,7 C -1,8 C 87 % 1014,2 hPa 0,0 mm 0,0 km/h (0 Bft) NW 315 0 min -3,6 C 0,0 km/h (0 Bft)
29.02.2016 22:55 -1,7 C -1,8 C 87 % 1014,2 hPa 0,0 mm 0,0 km/h (0 Bft) NW 315 0 min -3,6 C 0,0 km/h (0 Bft)
29.02.2016 23:00 -1,7 C -1,8 C 87 % 1014,2 hPa 0,0 mm 0,0 km/h (0 Bft) NW 315 0 min -3,6 C 0,0 km/h (0 Bft)
29.02.2016 23:05 -1,7 C -1,9 C 89 % 1014,2 hPa 0,0 mm 0,0 km/h (0 Bft) NW 315 0 min -3,3 C 0,0 km/h (0 Bft)
29.02.2016 23:10 -1,8 C -1,9 C 87 % 1014,4 hPa 0,0 mm 0,0 km/h (0 Bft) NW 315 0 min -3,7 C 0,0 km/h (0 Bft)
29.02.2016 23:15 -2,0 C -2,1 C 87 % 1014,4 hPa 0,0 mm 0,0 km/h (0 Bft) NW 315 0 min -3,9 C 0,0 km/h (0 Bft)
29.02.2016 23:20 -2,1 C -2,2 C 87 % 1014,4 hPa 0,0 mm 0,0 km/h (0 Bft) NW 315 0 min -4,0 C 0,0 km/h (0 Bft)
29.02.2016 23:25 -2,1 C -2,3 C 88 % 1014,4 hPa 0,0 mm 0,0 km/h (0 Bft) NW 315 0 min -3,8 C 0,0 km/h (0 Bft)
29.02.2016 23:30 -2,2 C -2,3 C 87 % 1014,6 hPa 0,0 mm 0,0 km/h (0 Bft) NW 315 0 min -4,1 C 0,0 km/h (0 Bft)
29.02.2016 23:35 -2,2 C -2,4 C 87 % 1014,6 hPa 0,0 mm 0,0 km/h (0 Bft) NW 315 0 min -4,1 C 0,0 km/h (0 Bft)
29.02.2016 23:40 -2,2 C -2,4 C 87 % 1014,6 hPa 0,0 mm 0,0 km/h (0 Bft) NW 315 0 min -4,1 C 0,0 km/h (0 Bft)
29.02.2016 23:45 -2,2 C -2,3 C 87 % 1014,6 hPa 0,0 mm 0,0 km/h (0 Bft) NW 315 0 min -4,1 C 0,0 km/h (0 Bft)
29.02.2016 23:50 -2,2 C -2,3 C 87 % 1014,6 hPa 0,0 mm 0,0 km/h (0 Bft) NW 315 0 min -4,1 C 0,0 km/h (0 Bft)
29.02.2016 23:55 -2,2 C -2,3 C 87 % 1014,6 hPa 0,0 mm 0,0 km/h (0 Bft) NW 315 0 min -4,1 C 0,0 km/h (0 Bft)
_ Min-Zeit 23:55 23:40 23:55 06:23 - 23:55 - - - 23:55 23:55
Minimum _ -2,2 C -2,4 C 87 % 1006,6 hPa - 0,0 km/h (0 Bft) - - - -4,1 C 0,0 km/h (0 Bft)
_ Max-Zeit 14:13 10:48 06:13 23:55 16:23 18:55 - - 23:55 11:39 16:18
Maximum _ 1,0 C 2,2 C 94 % 1014,6 hPa 0,7 mm 8,3 km/h
W (2 Bft)
- - 0 min -0,6 C 19,7 km/h
W (3 Bft)
Durchschnitt _ -0,1 C -0,0 C 89 % 1009,1 hPa #3,4 mm 2,7 km/h (1 Bft) O-NO - #0 min. -1,6 C 3,3 km/h (1 Bft)